<?xml version='1.0' encoding='UTF-8'?>
<gpx xmlns="http://www.topografix.com/GPX/1/1" creator="www.balnam.be" version="1.1" xmlns:xsi="http://www.w3.org/2001/XMLSchema-instance" xsi:schemaLocation="http://www.topografix.com/GPX/1/1 http://www.topografix.com/GPX/1/1/gpx.xsd">
<trk>
<name>hccgp1</name>
<cmt>v</cmt>
<desc>Gouy-lez-Piéton Chemin n°1 </desc>
<link href="https://chemins.be/gouylezpieton/chemin/1"/><trkseg>
<trkpt lat="50.476165" lon="4.297564"><time>2026-05-02T19:03:17Z</time></trkpt>
<trkpt lat="50.475981" lon="4.298976"><time>2026-05-02T19:13:17Z</time></trkpt>
<trkpt lat="50.475878" lon="4.299763"><time>2026-05-02T19:23:17Z</time></trkpt>
</trkseg></trk>
<trk>
<name>hccgp1</name>
<cmt>d</cmt>
<desc>Gouy-lez-Piéton Chemin n°1 </desc>
<link href="https://chemins.be/gouylezpieton/chemin/1"/><trkseg>
<trkpt lat="50.475878" lon="4.299763"><time>2026-05-02T19:23:17Z</time></trkpt>
<trkpt lat="50.477127" lon="4.301459"><time>2026-05-02T19:33:17Z</time></trkpt>
</trkseg></trk>
<trk>
<name>hccgp1</name>
<cmt>v</cmt>
<desc>Gouy-lez-Piéton Chemin n°1 </desc>
<link href="https://chemins.be/gouylezpieton/chemin/1"/><trkseg>
<trkpt lat="50.477127" lon="4.301459"><time>2026-05-02T19:33:17Z</time></trkpt>
<trkpt lat="50.478047" lon="4.303143"><time>2026-05-02T19:43:17Z</time></trkpt>
</trkseg></trk>
<trk>
<name>hccgp1</name>
<cmt>s</cmt>
<desc>Gouy-lez-Piéton Chemin n°1 </desc>
<link href="https://chemins.be/gouylezpieton/chemin/1"/><trkseg>
<trkpt lat="50.478047" lon="4.303143"><time>2026-05-02T19:43:17Z</time></trkpt>
<trkpt lat="50.479146" lon="4.305156"><time>2026-05-02T19:53:17Z</time></trkpt>
</trkseg></trk>
<trk>
<name>hccgp1</name>
<cmt>v</cmt>
<desc>Gouy-lez-Piéton Chemin n°1 </desc>
<link href="https://chemins.be/gouylezpieton/chemin/1"/><trkseg>
<trkpt lat="50.479146" lon="4.305156"><time>2026-05-02T19:53:17Z</time></trkpt>
<trkpt lat="50.480064" lon="4.306510"><time>2026-05-02T20:03:17Z</time></trkpt>
<trkpt lat="50.480362" lon="4.306635"><time>2026-05-02T20:13:17Z</time></trkpt>
</trkseg>
</trk>
<trk>
<name>hccgp100</name>
<cmt>q</cmt>
<desc>Gouy-lez-Piéton Sentier n°100 </desc>
<link href="https://chemins.be/gouylezpieton/sentier/100"/><trkseg>
<trkpt lat="50.489883" lon="4.298680"><time>2026-05-02T19:03:17Z</time></trkpt>
<trkpt lat="50.489074" lon="4.302954"><time>2026-05-02T19:13:17Z</time></trkpt>
<trkpt lat="50.489500" lon="4.306096"><time>2026-05-02T19:23:17Z</time></trkpt>
</trkseg>
</trk>
<trk>
<name>hccgp101</name>
<cmt>q</cmt>
<desc>Gouy-lez-Piéton Sentier n°101 </desc>
<link href="https://chemins.be/gouylezpieton/sentier/101"/><trkseg>
<trkpt lat="50.496120" lon="4.309170"><time>2026-05-02T19:03:17Z</time></trkpt>
<trkpt lat="50.494483" lon="4.307509"><time>2026-05-02T19:13:17Z</time></trkpt>
<trkpt lat="50.494365" lon="4.307044"><time>2026-05-02T19:23:17Z</time></trkpt>
</trkseg>
</trk>
<trk>
<name>hccgp102</name>
<cmt>q</cmt>
<desc>Gouy-lez-Piéton Sentier n°102 Rue du Facteur</desc>
<link href="https://chemins.be/gouylezpieton/sentier/102"/><trkseg>
<trkpt lat="50.496075" lon="4.309185"><time>2026-05-02T19:03:17Z</time></trkpt>
<trkpt lat="50.495302" lon="4.310073"><time>2026-05-02T19:13:17Z</time></trkpt>
<trkpt lat="50.494341" lon="4.312146"><time>2026-05-02T19:23:17Z</time></trkpt>
<trkpt lat="50.494162" lon="4.312950"><time>2026-05-02T19:33:17Z</time></trkpt>
<trkpt lat="50.493794" lon="4.313276"><time>2026-05-02T19:43:17Z</time></trkpt>
</trkseg></trk>
<trk>
<name>hccgp102</name>
<cmt>r</cmt>
<desc>Gouy-lez-Piéton Sentier n°102 Rue du Facteur</desc>
<link href="https://chemins.be/gouylezpieton/sentier/102"/><trkseg>
<trkpt lat="50.493794" lon="4.313276"><time>2026-05-02T19:43:17Z</time></trkpt>
<trkpt lat="50.493963" lon="4.313731"><time>2026-05-02T19:53:17Z</time></trkpt>
</trkseg></trk>
<trk>
<name>hccgp102</name>
<cmt>q</cmt>
<desc>Gouy-lez-Piéton Sentier n°102 Rue du Facteur</desc>
<link href="https://chemins.be/gouylezpieton/sentier/102"/><trkseg>
<trkpt lat="50.493963" lon="4.313731"><time>2026-05-02T19:53:17Z</time></trkpt>
<trkpt lat="50.493455" lon="4.313809"><time>2026-05-02T20:03:17Z</time></trkpt>
<trkpt lat="50.493144" lon="4.315482"><time>2026-05-02T20:13:17Z</time></trkpt>
<trkpt lat="50.493384" lon="4.316263"><time>2026-05-02T20:23:17Z</time></trkpt>
</trkseg>
</trk>
<trk>
<name>hccgp103</name>
<cmt>r</cmt>
<desc>Gouy-lez-Piéton Sentier n°103 Rue du Facteur</desc>
<link href="https://chemins.be/gouylezpieton/sentier/103"/><trkseg>
<trkpt lat="50.494252" lon="4.314472"><time>2026-05-02T19:03:17Z</time></trkpt>
<trkpt lat="50.494009" lon="4.313683"><time>2026-05-02T19:13:17Z</time></trkpt>
<trkpt lat="50.493766" lon="4.313261"><time>2026-05-02T19:23:17Z</time></trkpt>
</trkseg></trk>
<trk>
<name>hccgp103</name>
<cmt>v</cmt>
<desc>Gouy-lez-Piéton Sentier n°103 Rue du Facteur</desc>
<link href="https://chemins.be/gouylezpieton/sentier/103"/><trkseg>
<trkpt lat="50.493766" lon="4.313261"><time>2026-05-02T19:23:17Z</time></trkpt>
<trkpt lat="50.493397" lon="4.312246"><time>2026-05-02T19:33:17Z</time></trkpt>
<trkpt lat="50.493244" lon="4.311316"><time>2026-05-02T19:43:17Z</time></trkpt>
<trkpt lat="50.493109" lon="4.310541"><time>2026-05-02T19:53:17Z</time></trkpt>
</trkseg></trk>
<trk>
<name>hccgp103</name>
<cmt>r</cmt>
<desc>Gouy-lez-Piéton Sentier n°103 Rue du Facteur</desc>
<link href="https://chemins.be/gouylezpieton/sentier/103"/><trkseg>
<trkpt lat="50.493109" lon="4.310541"><time>2026-05-02T19:53:17Z</time></trkpt>
<trkpt lat="50.493099" lon="4.310231"><time>2026-05-02T20:03:17Z</time></trkpt>
<trkpt lat="50.493296" lon="4.308286"><time>2026-05-02T20:13:17Z</time></trkpt>
</trkseg>
</trk>
<trk>
<name>hccgp104</name>
<cmt>q</cmt>
<desc>Gouy-lez-Piéton Sentier n°104 </desc>
<link href="https://chemins.be/gouylezpieton/sentier/104"/><trkseg>
<trkpt lat="50.496103" lon="4.311552"><time>2026-05-02T19:03:17Z</time></trkpt>
<trkpt lat="50.496283" lon="4.311848"><time>2026-05-02T19:13:17Z</time></trkpt>
<trkpt lat="50.495879" lon="4.313159"><time>2026-05-02T19:23:17Z</time></trkpt>
<trkpt lat="50.495969" lon="4.314301"><time>2026-05-02T19:33:17Z</time></trkpt>
</trkseg>
</trk>
<trk>
<name>hccgp105</name>
<cmt>q</cmt>
<desc>Gouy-lez-Piéton Sentier n°105 </desc>
<link href="https://chemins.be/gouylezpieton/sentier/105"/><trkseg>
<trkpt lat="50.496545" lon="4.304645"><time>2026-05-02T19:03:17Z</time></trkpt>
<trkpt lat="50.496340" lon="4.302220"><time>2026-05-02T19:13:17Z</time></trkpt>
<trkpt lat="50.496757" lon="4.299817"><time>2026-05-02T19:23:17Z</time></trkpt>
</trkseg>
</trk>
<trk>
<name>hccgp106</name>
<cmt>r</cmt>
<desc>Gouy-lez-Piéton Sentier n°106 Rue du Canal</desc>
<link href="https://chemins.be/gouylezpieton/sentier/106"/><trkseg>
<trkpt lat="50.496523" lon="4.304831"><time>2026-05-02T19:03:17Z</time></trkpt>
<trkpt lat="50.496141" lon="4.304001"><time>2026-05-02T19:13:17Z</time></trkpt>
<trkpt lat="50.494825" lon="4.302503"><time>2026-05-02T19:23:17Z</time></trkpt>
</trkseg></trk>
<trk>
<name>hccgp106</name>
<cmt>v</cmt>
<desc>Gouy-lez-Piéton Sentier n°106 Rue du Canal</desc>
<link href="https://chemins.be/gouylezpieton/sentier/106"/><trkseg>
<trkpt lat="50.494825" lon="4.302503"><time>2026-05-02T19:23:17Z</time></trkpt>
<trkpt lat="50.494722" lon="4.302361"><time>2026-05-02T19:33:17Z</time></trkpt>
<trkpt lat="50.494512" lon="4.302013"><time>2026-05-02T19:43:17Z</time></trkpt>
</trkseg>
</trk>
<trk>
<name>hccgp107</name>
<cmt>q</cmt>
<desc>Gouy-lez-Piéton Sentier n°107 RAVel 1 centre bis4</desc>
<link href="https://chemins.be/gouylezpieton/sentier/107"/><trkseg>
<trkpt lat="50.490779" lon="4.328190"><time>2026-05-02T19:03:17Z</time></trkpt>
<trkpt lat="50.490676" lon="4.327198"><time>2026-05-02T19:13:17Z</time></trkpt>
</trkseg></trk>
<trk>
<name>hccgp107</name>
<cmt>v</cmt>
<desc>Gouy-lez-Piéton Sentier n°107 RAVel 1 centre bis4</desc>
<link href="https://chemins.be/gouylezpieton/sentier/107"/><trkseg>
<trkpt lat="50.490676" lon="4.327198"><time>2026-05-02T19:13:17Z</time></trkpt>
<trkpt lat="50.490559" lon="4.324910"><time>2026-05-02T19:23:17Z</time></trkpt>
</trkseg></trk>
<trk>
<name>hccgp107</name>
<cmt>q</cmt>
<desc>Gouy-lez-Piéton Sentier n°107 RAVel 1 centre bis4</desc>
<link href="https://chemins.be/gouylezpieton/sentier/107"/><trkseg>
<trkpt lat="50.490559" lon="4.324910"><time>2026-05-02T19:23:17Z</time></trkpt>
<trkpt lat="50.490689" lon="4.323920"><time>2026-05-02T19:33:17Z</time></trkpt>
<trkpt lat="50.490849" lon="4.323490"><time>2026-05-02T19:43:17Z</time></trkpt>
<trkpt lat="50.490839" lon="4.322040"><time>2026-05-02T19:53:17Z</time></trkpt>
<trkpt lat="50.491591" lon="4.319856"><time>2026-05-02T20:03:17Z</time></trkpt>
</trkseg></trk>
<trk>
<name>hccgp107</name>
<cmt>s</cmt>
<desc>Gouy-lez-Piéton Sentier n°107 RAVel 1 centre bis4</desc>
<link href="https://chemins.be/gouylezpieton/sentier/107"/><trkseg>
<trkpt lat="50.491591" lon="4.319856"><time>2026-05-02T20:03:17Z</time></trkpt>
<trkpt lat="50.491853" lon="4.319539"><time>2026-05-02T20:13:17Z</time></trkpt>
</trkseg></trk>
<trk>
<name>hccgp107</name>
<cmt>q</cmt>
<desc>Gouy-lez-Piéton Sentier n°107 RAVel 1 centre bis4</desc>
<link href="https://chemins.be/gouylezpieton/sentier/107"/><trkseg>
<trkpt lat="50.491853" lon="4.319539"><time>2026-05-02T20:13:17Z</time></trkpt>
<trkpt lat="50.492498" lon="4.318962"><time>2026-05-02T20:23:17Z</time></trkpt>
</trkseg></trk>
<trk>
<name>hccgp107</name>
<cmt>s</cmt>
<desc>Gouy-lez-Piéton Sentier n°107 RAVel 1 centre bis4</desc>
<link href="https://chemins.be/gouylezpieton/sentier/107"/><trkseg>
<trkpt lat="50.492498" lon="4.318962"><time>2026-05-02T20:23:17Z</time></trkpt>
<trkpt lat="50.491297" lon="4.311717"><time>2026-05-02T20:33:17Z</time></trkpt>
<trkpt lat="50.491454" lon="4.308793"><time>2026-05-02T20:43:17Z</time></trkpt>
<trkpt lat="50.491981" lon="4.309112"><time>2026-05-02T20:53:17Z</time></trkpt>
</trkseg></trk>
<trk>
<name>hccgp107</name>
<cmt>d</cmt>
<desc>Gouy-lez-Piéton Sentier n°107 RAVel 1 centre bis4</desc>
<link href="https://chemins.be/gouylezpieton/sentier/107"/><trkseg>
<trkpt lat="50.491981" lon="4.309112"><time>2026-05-02T20:53:17Z</time></trkpt>
<trkpt lat="50.492361" lon="4.309342"><time>2026-05-02T21:03:17Z</time></trkpt>
<trkpt lat="50.493169" lon="4.309582"><time>2026-05-02T21:13:17Z</time></trkpt>
</trkseg>
</trk>
<trk>
<name>hccgp108</name>
<cmt>q</cmt>
<desc>Gouy-lez-Piéton Sentier n°108 </desc>
<link href="https://chemins.be/gouylezpieton/sentier/108"/><trkseg>
<trkpt lat="50.490705" lon="4.303568"><time>2026-05-02T19:03:17Z</time></trkpt>
<trkpt lat="50.491397" lon="4.304624"><time>2026-05-02T19:13:17Z</time></trkpt>
<trkpt lat="50.491667" lon="4.305117"><time>2026-05-02T19:23:17Z</time></trkpt>
<trkpt lat="50.491826" lon="4.306355"><time>2026-05-02T19:33:17Z</time></trkpt>
<trkpt lat="50.491231" lon="4.308490"><time>2026-05-02T19:43:17Z</time></trkpt>
</trkseg></trk>
<trk>
<name>hccgp108</name>
<cmt>d</cmt>
<desc>Gouy-lez-Piéton Sentier n°108 </desc>
<link href="https://chemins.be/gouylezpieton/sentier/108"/><trkseg>
<trkpt lat="50.491231" lon="4.308490"><time>2026-05-02T19:43:17Z</time></trkpt>
<trkpt lat="50.491049" lon="4.310494"><time>2026-05-02T19:53:17Z</time></trkpt>
<trkpt lat="50.491100" lon="4.311838"><time>2026-05-02T20:03:17Z</time></trkpt>
<trkpt lat="50.491716" lon="4.316243"><time>2026-05-02T20:13:17Z</time></trkpt>
<trkpt lat="50.491225" lon="4.317918"><time>2026-05-02T20:23:17Z</time></trkpt>
<trkpt lat="50.492708" lon="4.321595"><time>2026-05-02T20:33:17Z</time></trkpt>
</trkseg></trk>
<trk>
<name>hccgp108</name>
<cmt>q</cmt>
<desc>Gouy-lez-Piéton Sentier n°108 </desc>
<link href="https://chemins.be/gouylezpieton/sentier/108"/><trkseg>
<trkpt lat="50.492708" lon="4.321595"><time>2026-05-02T20:33:17Z</time></trkpt>
<trkpt lat="50.492538" lon="4.321972"><time>2026-05-02T20:43:17Z</time></trkpt>
<trkpt lat="50.491980" lon="4.323412"><time>2026-05-02T20:53:17Z</time></trkpt>
<trkpt lat="50.492503" lon="4.324778"><time>2026-05-02T21:03:17Z</time></trkpt>
<trkpt lat="50.493063" lon="4.324999"><time>2026-05-02T21:13:17Z</time></trkpt>
<trkpt lat="50.494055" lon="4.325893"><time>2026-05-02T21:23:17Z</time></trkpt>
<trkpt lat="50.494519" lon="4.325708"><time>2026-05-02T21:33:17Z</time></trkpt>
</trkseg></trk>
<trk>
<name>hccgp108</name>
<cmt>s</cmt>
<desc>Gouy-lez-Piéton Sentier n°108 </desc>
<link href="https://chemins.be/gouylezpieton/sentier/108"/><trkseg>
<trkpt lat="50.494519" lon="4.325708"><time>2026-05-02T21:33:17Z</time></trkpt>
<trkpt lat="50.495251" lon="4.324771"><time>2026-05-02T21:43:17Z</time></trkpt>
</trkseg>
</trk>
<trk>
<name>hccgp109</name>
<cmt>q</cmt>
<desc>Gouy-lez-Piéton Sentier n°109 </desc>
<link href="https://chemins.be/gouylezpieton/sentier/109"/><trkseg>
<trkpt lat="50.493801" lon="4.317545"><time>2026-05-02T19:03:17Z</time></trkpt>
<trkpt lat="50.493921" lon="4.318550"><time>2026-05-02T19:13:17Z</time></trkpt>
<trkpt lat="50.494828" lon="4.321588"><time>2026-05-02T19:23:17Z</time></trkpt>
<trkpt lat="50.494828" lon="4.322807"><time>2026-05-02T19:33:17Z</time></trkpt>
</trkseg>
</trk>
<trk>
<name>hccgp110</name>
<cmt>q</cmt>
<desc>Gouy-lez-Piéton Sentier n°110 Rue du chaufour</desc>
<link href="https://chemins.be/gouylezpieton/sentier/110"/><trkseg>
<trkpt lat="50.486297" lon="4.318088"><time>2026-05-02T19:03:17Z</time></trkpt>
<trkpt lat="50.486612" lon="4.318370"><time>2026-05-02T19:13:17Z</time></trkpt>
<trkpt lat="50.487313" lon="4.318059"><time>2026-05-02T19:23:17Z</time></trkpt>
<trkpt lat="50.487691" lon="4.319017"><time>2026-05-02T19:33:17Z</time></trkpt>
<trkpt lat="50.488060" lon="4.319002"><time>2026-05-02T19:43:17Z</time></trkpt>
<trkpt lat="50.488357" lon="4.319002"><time>2026-05-02T19:53:17Z</time></trkpt>
<trkpt lat="50.488654" lon="4.319594"><time>2026-05-02T20:03:17Z</time></trkpt>
<trkpt lat="50.491332" lon="4.319281"><time>2026-05-02T20:13:17Z</time></trkpt>
</trkseg>
</trk>
<trk>
<name>hccgp111</name>
<cmt>q</cmt>
<desc>Gouy-lez-Piéton Sentier n°111 </desc>
<link href="https://chemins.be/gouylezpieton/sentier/111"/><trkseg>
<trkpt lat="50.495481" lon="4.330863"><time>2026-05-02T19:03:17Z</time></trkpt>
<trkpt lat="50.494498" lon="4.334683"><time>2026-05-02T19:13:17Z</time></trkpt>
</trkseg>
</trk>
<trk>
<name>hccgp112</name>
<cmt>q</cmt>
<desc>Gouy-lez-Piéton Sentier n°112 </desc>
<link href="https://chemins.be/gouylezpieton/sentier/112"/><trkseg>
<trkpt lat="50.495231" lon="4.335823"><time>2026-05-02T19:03:17Z</time></trkpt>
<trkpt lat="50.495105" lon="4.336641"><time>2026-05-02T19:13:17Z</time></trkpt>
<trkpt lat="50.494800" lon="4.337289"><time>2026-05-02T19:23:17Z</time></trkpt>
<trkpt lat="50.493838" lon="4.337868"><time>2026-05-02T19:33:17Z</time></trkpt>
</trkseg>
</trk>
<trk>
<name>hccgp113</name>
<cmt>q</cmt>
<desc>Gouy-lez-Piéton Sentier n°113 </desc>
<link href="https://chemins.be/gouylezpieton/sentier/113"/><trkseg>
<trkpt lat="50.495555" lon="4.336260"><time>2026-05-02T19:03:17Z</time></trkpt>
<trkpt lat="50.495375" lon="4.336627"><time>2026-05-02T19:13:17Z</time></trkpt>
<trkpt lat="50.495131" lon="4.339353"><time>2026-05-02T19:23:17Z</time></trkpt>
<trkpt lat="50.495067" lon="4.339725"><time>2026-05-02T19:33:17Z</time></trkpt>
<trkpt lat="50.492811" lon="4.342400"><time>2026-05-02T19:43:17Z</time></trkpt>
<trkpt lat="50.492947" lon="4.343330"><time>2026-05-02T19:53:17Z</time></trkpt>
</trkseg>
</trk>
<trk>
<name>hccgp113bis</name>
<cmt>q</cmt>
<desc>Gouy-lez-Piéton Sentier n°113bis </desc>
<link href="https://chemins.be/gouylezpieton/sentier/113bis"/><trkseg>
<trkpt lat="50.495395" lon="4.336526"><time>2026-05-02T19:03:17Z</time></trkpt>
<trkpt lat="50.495088" lon="4.336660"><time>2026-05-02T19:13:17Z</time></trkpt>
</trkseg>
</trk>
<trk>
<name>hccgp114</name>
<cmt>r</cmt>
<desc>Gouy-lez-Piéton Sentier n°114 </desc>
<link href="https://chemins.be/gouylezpieton/sentier/114"/><trkseg>
<trkpt lat="50.493644" lon="4.337260"><time>2026-05-02T19:03:17Z</time></trkpt>
<trkpt lat="50.493729" lon="4.337932"><time>2026-05-02T19:13:17Z</time></trkpt>
<trkpt lat="50.493685" lon="4.338830"><time>2026-05-02T19:23:17Z</time></trkpt>
</trkseg></trk>
<trk>
<name>hccgp114</name>
<cmt>q</cmt>
<desc>Gouy-lez-Piéton Sentier n°114 </desc>
<link href="https://chemins.be/gouylezpieton/sentier/114"/><trkseg>
<trkpt lat="50.493685" lon="4.338830"><time>2026-05-02T19:23:17Z</time></trkpt>
<trkpt lat="50.493633" lon="4.339606"><time>2026-05-02T19:33:17Z</time></trkpt>
<trkpt lat="50.493940" lon="4.339921"><time>2026-05-02T19:43:17Z</time></trkpt>
<trkpt lat="50.494022" lon="4.340890"><time>2026-05-02T19:53:17Z</time></trkpt>
</trkseg>
</trk>
<trk>
<name>hccgp115</name>
<cmt>q</cmt>
<desc>Gouy-lez-Piéton Sentier n°115 </desc>
<link href="https://chemins.be/gouylezpieton/sentier/115"/><trkseg>
<trkpt lat="50.493881" lon="4.329764"><time>2026-05-02T19:03:17Z</time></trkpt>
<trkpt lat="50.493270" lon="4.330737"><time>2026-05-02T19:13:17Z</time></trkpt>
<trkpt lat="50.492856" lon="4.331710"><time>2026-05-02T19:23:17Z</time></trkpt>
<trkpt lat="50.492704" lon="4.332612"><time>2026-05-02T19:33:17Z</time></trkpt>
<trkpt lat="50.492965" lon="4.333203"><time>2026-05-02T19:43:17Z</time></trkpt>
</trkseg></trk>
<trk>
<name>hccgp115</name>
<cmt>v</cmt>
<desc>Gouy-lez-Piéton Sentier n°115 </desc>
<link href="https://chemins.be/gouylezpieton/sentier/115"/><trkseg>
<trkpt lat="50.492965" lon="4.333203"><time>2026-05-02T19:43:17Z</time></trkpt>
<trkpt lat="50.492830" lon="4.333359"><time>2026-05-02T19:53:17Z</time></trkpt>
<trkpt lat="50.492795" lon="4.335444"><time>2026-05-02T20:03:17Z</time></trkpt>
<trkpt lat="50.493074" lon="4.337220"><time>2026-05-02T20:13:17Z</time></trkpt>
</trkseg>
</trk>
<trk>
<name>hccgp116</name>
<cmt>q</cmt>
<desc>Gouy-lez-Piéton Sentier n°116 </desc>
<link href="https://chemins.be/gouylezpieton/sentier/116"/><trkseg>
<trkpt lat="50.492982" lon="4.326980"><time>2026-05-02T19:03:17Z</time></trkpt>
<trkpt lat="50.493072" lon="4.327852"><time>2026-05-02T19:13:17Z</time></trkpt>
<trkpt lat="50.492193" lon="4.330444"><time>2026-05-02T19:23:17Z</time></trkpt>
</trkseg>
</trk>
<trk>
<name>hccgp117</name>
<cmt>q</cmt>
<desc>Gouy-lez-Piéton Sentier n°117 Rue de la Station</desc>
<link href="https://chemins.be/gouylezpieton/sentier/117"/><trkseg>
<trkpt lat="50.490874" lon="4.330060"><time>2026-05-02T19:03:17Z</time></trkpt>
<trkpt lat="50.493146" lon="4.329570"><time>2026-05-02T19:13:17Z</time></trkpt>
</trkseg>
</trk>
<trk>
<name>hccgp118</name>
<cmt>r</cmt>
<desc>Gouy-lez-Piéton Sentier n°118 Impasse Morlet / Rue Francisco Ferrer</desc>
<link href="https://chemins.be/gouylezpieton/sentier/118"/><trkseg>
<trkpt lat="50.488149" lon="4.329335"><time>2026-05-02T19:03:17Z</time></trkpt>
<trkpt lat="50.487964" lon="4.328311"><time>2026-05-02T19:13:17Z</time></trkpt>
<trkpt lat="50.487776" lon="4.328352"><time>2026-05-02T19:23:17Z</time></trkpt>
</trkseg></trk>
<trk>
<name>hccgp118</name>
<cmt>v</cmt>
<desc>Gouy-lez-Piéton Sentier n°118 Impasse Morlet / Rue Francisco Ferrer</desc>
<link href="https://chemins.be/gouylezpieton/sentier/118"/><trkseg>
<trkpt lat="50.487776" lon="4.328352"><time>2026-05-02T19:23:17Z</time></trkpt>
<trkpt lat="50.487595" lon="4.326598"><time>2026-05-02T19:33:17Z</time></trkpt>
<trkpt lat="50.487487" lon="4.326584"><time>2026-05-02T19:43:17Z</time></trkpt>
<trkpt lat="50.487496" lon="4.325795"><time>2026-05-02T19:53:17Z</time></trkpt>
</trkseg>
</trk>
<trk>
<name>hccgp119</name>
<cmt>r</cmt>
<desc>Gouy-lez-Piéton Sentier n°119 </desc>
<link href="https://chemins.be/gouylezpieton/sentier/119"/><trkseg>
<trkpt lat="50.489273" lon="4.329233"><time>2026-05-02T19:03:17Z</time></trkpt>
<trkpt lat="50.488732" lon="4.327852"><time>2026-05-02T19:13:17Z</time></trkpt>
<trkpt lat="50.488574" lon="4.327963"><time>2026-05-02T19:23:17Z</time></trkpt>
</trkseg></trk>
<trk>
<name>hccgp119</name>
<cmt>q</cmt>
<desc>Gouy-lez-Piéton Sentier n°119 </desc>
<link href="https://chemins.be/gouylezpieton/sentier/119"/><trkseg>
<trkpt lat="50.488574" lon="4.327963"><time>2026-05-02T19:23:17Z</time></trkpt>
<trkpt lat="50.487645" lon="4.326839"><time>2026-05-02T19:33:17Z</time></trkpt>
</trkseg>
</trk>
<trk>
<name>hccgp12</name>
<cmt>r</cmt>
<desc>Gouy-lez-Piéton Chemin n°12 Chemin de l'Infante Isabelle</desc>
<link href="https://chemins.be/gouylezpieton/chemin/12"/><trkseg>
<trkpt lat="50.511547" lon="4.294376"><time>2026-05-02T19:03:17Z</time></trkpt>
<trkpt lat="50.510269" lon="4.292150"><time>2026-05-02T19:13:17Z</time></trkpt>
</trkseg></trk>
<trk>
<name>hccgp12</name>
<cmt>d</cmt>
<desc>Gouy-lez-Piéton Chemin n°12 Chemin de l'Infante Isabelle</desc>
<link href="https://chemins.be/gouylezpieton/chemin/12"/><trkseg>
<trkpt lat="50.510269" lon="4.292150"><time>2026-05-02T19:13:17Z</time></trkpt>
<trkpt lat="50.509855" lon="4.291601"><time>2026-05-02T19:23:17Z</time></trkpt>
</trkseg></trk>
<trk>
<name>hccgp12</name>
<cmt>v</cmt>
<desc>Gouy-lez-Piéton Chemin n°12 Chemin de l'Infante Isabelle</desc>
<link href="https://chemins.be/gouylezpieton/chemin/12"/><trkseg>
<trkpt lat="50.509855" lon="4.291601"><time>2026-05-02T19:23:17Z</time></trkpt>
<trkpt lat="50.508910" lon="4.288867"><time>2026-05-02T19:33:17Z</time></trkpt>
<trkpt lat="50.508021" lon="4.286969"><time>2026-05-02T19:43:17Z</time></trkpt>
<trkpt lat="50.507344" lon="4.286944"><time>2026-05-02T19:53:17Z</time></trkpt>
</trkseg>
</trk>
<trk>
<name>hccgp120</name>
<cmt>q</cmt>
<desc>Gouy-lez-Piéton Sentier n°120 Rue du Calvaire</desc>
<link href="https://chemins.be/gouylezpieton/sentier/120"/><trkseg>
<trkpt lat="50.488082" lon="4.329416"><time>2026-05-02T19:03:17Z</time></trkpt>
<trkpt lat="50.488208" lon="4.330163"><time>2026-05-02T19:13:17Z</time></trkpt>
<trkpt lat="50.487570" lon="4.330615"><time>2026-05-02T19:23:17Z</time></trkpt>
</trkseg></trk>
<trk>
<name>hccgp120</name>
<cmt>v</cmt>
<desc>Gouy-lez-Piéton Sentier n°120 Rue du Calvaire</desc>
<link href="https://chemins.be/gouylezpieton/sentier/120"/><trkseg>
<trkpt lat="50.487570" lon="4.330615"><time>2026-05-02T19:23:17Z</time></trkpt>
<trkpt lat="50.487795" lon="4.332474"><time>2026-05-02T19:33:17Z</time></trkpt>
</trkseg></trk>
<trk>
<name>hccgp120</name>
<cmt>r</cmt>
<desc>Gouy-lez-Piéton Sentier n°120 Rue du Calvaire</desc>
<link href="https://chemins.be/gouylezpieton/sentier/120"/><trkseg>
<trkpt lat="50.487795" lon="4.332474"><time>2026-05-02T19:33:17Z</time></trkpt>
<trkpt lat="50.487328" lon="4.332602"><time>2026-05-02T19:43:17Z</time></trkpt>
</trkseg></trk>
<trk>
<name>hccgp120</name>
<cmt>q</cmt>
<desc>Gouy-lez-Piéton Sentier n°120 Rue du Calvaire</desc>
<link href="https://chemins.be/gouylezpieton/sentier/120"/><trkseg>
<trkpt lat="50.487328" lon="4.332602"><time>2026-05-02T19:43:17Z</time></trkpt>
<trkpt lat="50.487067" lon="4.333743"><time>2026-05-02T19:53:17Z</time></trkpt>
<trkpt lat="50.485028" lon="4.339621"><time>2026-05-02T20:03:17Z</time></trkpt>
</trkseg>
</trk>
<trk>
<name>hccgp121</name>
<cmt>v</cmt>
<desc>Gouy-lez-Piéton Sentier n°121 </desc>
<link href="https://chemins.be/gouylezpieton/sentier/121"/><trkseg>
<trkpt lat="50.487399" lon="4.329530"><time>2026-05-02T19:03:17Z</time></trkpt>
<trkpt lat="50.487561" lon="4.330600"><time>2026-05-02T19:13:17Z</time></trkpt>
</trkseg></trk>
<trk>
<name>hccgp121</name>
<cmt>q</cmt>
<desc>Gouy-lez-Piéton Sentier n°121 </desc>
<link href="https://chemins.be/gouylezpieton/sentier/121"/><trkseg>
<trkpt lat="50.487561" lon="4.330600"><time>2026-05-02T19:13:17Z</time></trkpt>
<trkpt lat="50.489323" lon="4.332121"><time>2026-05-02T19:23:17Z</time></trkpt>
<trkpt lat="50.490043" lon="4.332783"><time>2026-05-02T19:33:17Z</time></trkpt>
<trkpt lat="50.491086" lon="4.333726"><time>2026-05-02T19:43:17Z</time></trkpt>
<trkpt lat="50.492786" lon="4.335289"><time>2026-05-02T19:53:17Z</time></trkpt>
</trkseg>
</trk>
<trk>
<name>hccgp122</name>
<cmt>q</cmt>
<desc>Gouy-lez-Piéton Sentier n°122 </desc>
<link href="https://chemins.be/gouylezpieton/sentier/122"/><trkseg>
<trkpt lat="50.491011" lon="4.337394"><time>2026-05-02T19:03:17Z</time></trkpt>
<trkpt lat="50.487116" lon="4.333744"><time>2026-05-02T19:13:17Z</time></trkpt>
<trkpt lat="50.486133" lon="4.332823"><time>2026-05-02T19:23:17Z</time></trkpt>
<trkpt lat="50.485277" lon="4.332021"><time>2026-05-02T19:33:17Z</time></trkpt>
<trkpt lat="50.483376" lon="4.330750"><time>2026-05-02T19:43:17Z</time></trkpt>
<trkpt lat="50.482896" lon="4.329171"><time>2026-05-02T19:53:17Z</time></trkpt>
</trkseg>
</trk>
<trk>
<name>hccgp123</name>
<cmt>q</cmt>
<desc>Gouy-lez-Piéton Sentier n°123 </desc>
<link href="https://chemins.be/gouylezpieton/sentier/123"/><trkseg>
<trkpt lat="50.493782" lon="4.326479"><time>2026-05-02T19:03:17Z</time></trkpt>
<trkpt lat="50.493777" lon="4.326022"><time>2026-05-02T19:13:17Z</time></trkpt>
<trkpt lat="50.493656" lon="4.325808"><time>2026-05-02T19:23:17Z</time></trkpt>
<trkpt lat="50.492545" lon="4.325491"><time>2026-05-02T19:33:17Z</time></trkpt>
<trkpt lat="50.492013" lon="4.325011"><time>2026-05-02T19:43:17Z</time></trkpt>
</trkseg>
</trk>
<trk>
<name>hccgp124</name>
<cmt>q</cmt>
<desc>Gouy-lez-Piéton Sentier n°124 </desc>
<link href="https://chemins.be/gouylezpieton/sentier/124"/><trkseg>
<trkpt lat="50.494708" lon="4.326813"><time>2026-05-02T19:03:17Z</time></trkpt>
<trkpt lat="50.493850" lon="4.326920"><time>2026-05-02T19:13:17Z</time></trkpt>
<trkpt lat="50.493517" lon="4.326770"><time>2026-05-02T19:23:17Z</time></trkpt>
</trkseg>
</trk>
<trk>
<name>hccgp125</name>
<cmt>v</cmt>
<desc>Gouy-lez-Piéton Sentier n°125 </desc>
<link href="https://chemins.be/gouylezpieton/sentier/125"/><trkseg>
<trkpt lat="50.491520" lon="4.343520"><time>2026-05-02T19:03:17Z</time></trkpt>
<trkpt lat="50.490846" lon="4.345931"><time>2026-05-02T19:13:17Z</time></trkpt>
<trkpt lat="50.490145" lon="4.349257"><time>2026-05-02T19:23:17Z</time></trkpt>
</trkseg></trk>
<trk>
<name>hccgp125</name>
<cmt>q</cmt>
<desc>Gouy-lez-Piéton Sentier n°125 </desc>
<link href="https://chemins.be/gouylezpieton/sentier/125"/><trkseg>
<trkpt lat="50.490145" lon="4.349257"><time>2026-05-02T19:23:17Z</time></trkpt>
<trkpt lat="50.489454" lon="4.352301"><time>2026-05-02T19:33:17Z</time></trkpt>
<trkpt lat="50.488896" lon="4.353429"><time>2026-05-02T19:43:17Z</time></trkpt>
<trkpt lat="50.487944" lon="4.360743"><time>2026-05-02T19:53:17Z</time></trkpt>
</trkseg>
</trk>
<trk>
<name>hccgp126</name>
<cmt>q</cmt>
<desc>Gouy-lez-Piéton Sentier n°126 </desc>
<link href="https://chemins.be/gouylezpieton/sentier/126"/><trkseg>
<trkpt lat="50.490353" lon="4.358656"><time>2026-05-02T19:03:17Z</time></trkpt>
<trkpt lat="50.487746" lon="4.358502"><time>2026-05-02T19:13:17Z</time></trkpt>
<trkpt lat="50.485013" lon="4.358108"><time>2026-05-02T19:23:17Z</time></trkpt>
<trkpt lat="50.483485" lon="4.357221"><time>2026-05-02T19:33:17Z</time></trkpt>
<trkpt lat="50.482474" lon="4.357102"><time>2026-05-02T19:43:17Z</time></trkpt>
</trkseg>
</trk>
<trk>
<name>hccgp127</name>
<cmt>q</cmt>
<desc>Gouy-lez-Piéton Sentier n°127 Rue du chaufour / Rue de la Borre</desc>
<link href="https://chemins.be/gouylezpieton/sentier/127"/><trkseg>
<trkpt lat="50.482270" lon="4.325098"><time>2026-05-02T19:03:17Z</time></trkpt>
<trkpt lat="50.483395" lon="4.323262"><time>2026-05-02T19:13:17Z</time></trkpt>
<trkpt lat="50.485641" lon="4.322693"><time>2026-05-02T19:23:17Z</time></trkpt>
</trkseg></trk>
<trk>
<name>hccgp127</name>
<cmt>r</cmt>
<desc>Gouy-lez-Piéton Sentier n°127 Rue du chaufour / Rue de la Borre</desc>
<link href="https://chemins.be/gouylezpieton/sentier/127"/><trkseg>
<trkpt lat="50.485641" lon="4.322693"><time>2026-05-02T19:23:17Z</time></trkpt>
<trkpt lat="50.485401" lon="4.321878"><time>2026-05-02T19:33:17Z</time></trkpt>
<trkpt lat="50.485813" lon="4.321583"><time>2026-05-02T19:43:17Z</time></trkpt>
</trkseg></trk>
<trk>
<name>hccgp127</name>
<cmt>q</cmt>
<desc>Gouy-lez-Piéton Sentier n°127 Rue du chaufour / Rue de la Borre</desc>
<link href="https://chemins.be/gouylezpieton/sentier/127"/><trkseg>
<trkpt lat="50.485813" lon="4.321583"><time>2026-05-02T19:43:17Z</time></trkpt>
<trkpt lat="50.486676" lon="4.321047"><time>2026-05-02T19:53:17Z</time></trkpt>
<trkpt lat="50.487620" lon="4.319679"><time>2026-05-02T20:03:17Z</time></trkpt>
<trkpt lat="50.487772" lon="4.319101"><time>2026-05-02T20:13:17Z</time></trkpt>
</trkseg>
</trk>
<trk>
<name>hccgp128</name>
<cmt>q</cmt>
<desc>Gouy-lez-Piéton Sentier n°128 </desc>
<link href="https://chemins.be/gouylezpieton/sentier/128"/><trkseg>
<trkpt lat="50.487163" lon="4.325556"><time>2026-05-02T19:03:17Z</time></trkpt>
<trkpt lat="50.487190" lon="4.324245"><time>2026-05-02T19:13:17Z</time></trkpt>
<trkpt lat="50.486667" lon="4.320991"><time>2026-05-02T19:23:17Z</time></trkpt>
<trkpt lat="50.486387" lon="4.318314"><time>2026-05-02T19:33:17Z</time></trkpt>
</trkseg>
</trk>
<trk>
<name>hccgp129</name>
<cmt>v</cmt>
<desc>Gouy-lez-Piéton Sentier n°129 </desc>
<link href="https://chemins.be/gouylezpieton/sentier/129"/><trkseg>
<trkpt lat="50.485366" lon="4.328503"><time>2026-05-02T19:03:17Z</time></trkpt>
<trkpt lat="50.485267" lon="4.327911"><time>2026-05-02T19:13:17Z</time></trkpt>
</trkseg></trk>
<trk>
<name>hccgp129</name>
<cmt>q</cmt>
<desc>Gouy-lez-Piéton Sentier n°129 </desc>
<link href="https://chemins.be/gouylezpieton/sentier/129"/><trkseg>
<trkpt lat="50.485267" lon="4.327911"><time>2026-05-02T19:13:17Z</time></trkpt>
<trkpt lat="50.484521" lon="4.327587"><time>2026-05-02T19:23:17Z</time></trkpt>
<trkpt lat="50.483702" lon="4.324798"><time>2026-05-02T19:33:17Z</time></trkpt>
<trkpt lat="50.483111" lon="4.323738"><time>2026-05-02T19:43:17Z</time></trkpt>
<trkpt lat="50.482532" lon="4.322700"><time>2026-05-02T19:53:17Z</time></trkpt>
<trkpt lat="50.482095" lon="4.319973"><time>2026-05-02T20:03:17Z</time></trkpt>
<trkpt lat="50.481994" lon="4.319127"><time>2026-05-02T20:13:17Z</time></trkpt>
</trkseg>
</trk>
<trk>
<name>hccgp13</name>
<cmt>v</cmt>
<desc>Gouy-lez-Piéton Chemin n°13 </desc>
<link href="https://chemins.be/gouylezpieton/chemin/13"/><trkseg>
<trkpt lat="50.509748" lon="4.291601"><time>2026-05-02T19:03:17Z</time></trkpt>
<trkpt lat="50.509937" lon="4.292757"><time>2026-05-02T19:13:17Z</time></trkpt>
<trkpt lat="50.509929" lon="4.293462"><time>2026-05-02T19:23:17Z</time></trkpt>
<trkpt lat="50.510829" lon="4.296534"><time>2026-05-02T19:33:17Z</time></trkpt>
<trkpt lat="50.511083" lon="4.298973"><time>2026-05-02T19:43:17Z</time></trkpt>
<trkpt lat="50.510958" lon="4.300890"><time>2026-05-02T19:53:17Z</time></trkpt>
<trkpt lat="50.511131" lon="4.304950"><time>2026-05-02T20:03:17Z</time></trkpt>
<trkpt lat="50.511358" lon="4.308320"><time>2026-05-02T20:13:17Z</time></trkpt>
<trkpt lat="50.511197" lon="4.310449"><time>2026-05-02T20:23:17Z</time></trkpt>
<trkpt lat="50.511584" lon="4.311999"><time>2026-05-02T20:33:17Z</time></trkpt>
<trkpt lat="50.512098" lon="4.314649"><time>2026-05-02T20:43:17Z</time></trkpt>
<trkpt lat="50.512773" lon="4.317496"><time>2026-05-02T20:53:17Z</time></trkpt>
<trkpt lat="50.513727" lon="4.320174"><time>2026-05-02T21:03:17Z</time></trkpt>
<trkpt lat="50.513738" lon="4.323319"><time>2026-05-02T21:13:17Z</time></trkpt>
</trkseg>
</trk>
<trk>
<name>hccgp130</name>
<cmt>q</cmt>
<desc>Gouy-lez-Piéton Sentier n°130 Chevauchoir n°130 / Rue de Gouy</desc>
<link href="https://chemins.be/gouylezpieton/sentier/130"/><trkseg>
<trkpt lat="50.473926" lon="4.329109"><time>2026-05-02T19:03:17Z</time></trkpt>
<trkpt lat="50.475710" lon="4.329738"><time>2026-05-02T19:13:17Z</time></trkpt>
<trkpt lat="50.477644" lon="4.329101"><time>2026-05-02T19:23:17Z</time></trkpt>
</trkseg></trk>
<trk>
<name>hccgp130</name>
<cmt>r</cmt>
<desc>Gouy-lez-Piéton Sentier n°130 Chevauchoir n°130 / Rue de Gouy</desc>
<link href="https://chemins.be/gouylezpieton/sentier/130"/><trkseg>
<trkpt lat="50.477644" lon="4.329101"><time>2026-05-02T19:23:17Z</time></trkpt>
<trkpt lat="50.478742" lon="4.328658"><time>2026-05-02T19:33:17Z</time></trkpt>
</trkseg></trk>
<trk>
<name>hccgp130</name>
<cmt>q</cmt>
<desc>Gouy-lez-Piéton Sentier n°130 Chevauchoir n°130 / Rue de Gouy</desc>
<link href="https://chemins.be/gouylezpieton/sentier/130"/><trkseg>
<trkpt lat="50.478742" lon="4.328658"><time>2026-05-02T19:33:17Z</time></trkpt>
<trkpt lat="50.479133" lon="4.328501"><time>2026-05-02T19:43:17Z</time></trkpt>
<trkpt lat="50.480258" lon="4.328457"><time>2026-05-02T19:53:17Z</time></trkpt>
</trkseg></trk>
<trk>
<name>hccgp130</name>
<cmt>s</cmt>
<desc>Gouy-lez-Piéton Sentier n°130 Chevauchoir n°130 / Rue de Gouy</desc>
<link href="https://chemins.be/gouylezpieton/sentier/130"/><trkseg>
<trkpt lat="50.480258" lon="4.328457"><time>2026-05-02T19:53:17Z</time></trkpt>
<trkpt lat="50.481172" lon="4.328422"><time>2026-05-02T20:03:17Z</time></trkpt>
</trkseg></trk>
<trk>
<name>hccgp130</name>
<cmt>b</cmt>
<desc>Gouy-lez-Piéton Sentier n°130 Chevauchoir n°130 / Rue de Gouy</desc>
<link href="https://chemins.be/gouylezpieton/sentier/130"/><trkseg>
<trkpt lat="50.481172" lon="4.328422"><time>2026-05-02T20:03:17Z</time></trkpt>
<trkpt lat="50.483739" lon="4.329461"><time>2026-05-02T20:13:17Z</time></trkpt>
</trkseg>
</trk>
<trk>
<name>hccgp131</name>
<cmt>q</cmt>
<desc>Gouy-lez-Piéton Sentier n°131 Rue Royale</desc>
<link href="https://chemins.be/gouylezpieton/sentier/131"/><trkseg>
<trkpt lat="50.485822" lon="4.324580"><time>2026-05-02T19:03:17Z</time></trkpt>
<trkpt lat="50.486013" lon="4.324627"><time>2026-05-02T19:13:17Z</time></trkpt>
<trkpt lat="50.486535" lon="4.325762"><time>2026-05-02T19:23:17Z</time></trkpt>
</trkseg></trk>
<trk>
<name>hccgp131</name>
<cmt>r</cmt>
<desc>Gouy-lez-Piéton Sentier n°131 Rue Royale</desc>
<link href="https://chemins.be/gouylezpieton/sentier/131"/><trkseg>
<trkpt lat="50.486535" lon="4.325762"><time>2026-05-02T19:23:17Z</time></trkpt>
<trkpt lat="50.486814" lon="4.327749"><time>2026-05-02T19:33:17Z</time></trkpt>
</trkseg>
</trk>
<trk>
<name>hccgp132</name>
<cmt>q</cmt>
<desc>Gouy-lez-Piéton Sentier n°132 </desc>
<link href="https://chemins.be/gouylezpieton/sentier/132"/><trkseg>
<trkpt lat="50.486650" lon="4.326572"><time>2026-05-02T19:03:17Z</time></trkpt>
<trkpt lat="50.485880" lon="4.326889"><time>2026-05-02T19:13:17Z</time></trkpt>
<trkpt lat="50.485888" lon="4.327108"><time>2026-05-02T19:23:17Z</time></trkpt>
</trkseg></trk>
<trk>
<name>hccgp132</name>
<cmt>v</cmt>
<desc>Gouy-lez-Piéton Sentier n°132 </desc>
<link href="https://chemins.be/gouylezpieton/sentier/132"/><trkseg>
<trkpt lat="50.485888" lon="4.327108"><time>2026-05-02T19:23:17Z</time></trkpt>
<trkpt lat="50.485258" lon="4.327263"><time>2026-05-02T19:33:17Z</time></trkpt>
</trkseg></trk>
<trk>
<name>hccgp132</name>
<cmt>q</cmt>
<desc>Gouy-lez-Piéton Sentier n°132 </desc>
<link href="https://chemins.be/gouylezpieton/sentier/132"/><trkseg>
<trkpt lat="50.485258" lon="4.327263"><time>2026-05-02T19:33:17Z</time></trkpt>
<trkpt lat="50.485285" lon="4.327911"><time>2026-05-02T19:43:17Z</time></trkpt>
<trkpt lat="50.484520" lon="4.328568"><time>2026-05-02T19:53:17Z</time></trkpt>
<trkpt lat="50.484603" lon="4.329419"><time>2026-05-02T20:03:17Z</time></trkpt>
</trkseg>
</trk>
<trk>
<name>hccgp133</name>
<cmt>r</cmt>
<desc>Gouy-lez-Piéton Sentier n°133 Rue du Perron</desc>
<link href="https://chemins.be/gouylezpieton/sentier/133"/><trkseg>
<trkpt lat="50.485325" lon="4.328589"><time>2026-05-02T19:03:17Z</time></trkpt>
<trkpt lat="50.484613" lon="4.328623"><time>2026-05-02T19:13:17Z</time></trkpt>
</trkseg></trk>
<trk>
<name>hccgp133</name>
<cmt>q</cmt>
<desc>Gouy-lez-Piéton Sentier n°133 Rue du Perron</desc>
<link href="https://chemins.be/gouylezpieton/sentier/133"/><trkseg>
<trkpt lat="50.484613" lon="4.328623"><time>2026-05-02T19:13:17Z</time></trkpt>
<trkpt lat="50.484528" lon="4.328608"><time>2026-05-02T19:23:17Z</time></trkpt>
</trkseg>
</trk>
<trk>
<name>hccgp134</name>
<cmt>q</cmt>
<desc>Gouy-lez-Piéton Sentier n°134 </desc>
<link href="https://chemins.be/gouylezpieton/sentier/134"/><trkseg>
<trkpt lat="50.485761" lon="4.324556"><time>2026-05-02T19:03:17Z</time></trkpt>
<trkpt lat="50.484809" lon="4.325134"><time>2026-05-02T19:13:17Z</time></trkpt>
<trkpt lat="50.484263" lon="4.324812"><time>2026-05-02T19:23:17Z</time></trkpt>
<trkpt lat="50.483414" lon="4.324700"><time>2026-05-02T19:33:17Z</time></trkpt>
<trkpt lat="50.483239" lon="4.324537"><time>2026-05-02T19:43:17Z</time></trkpt>
<trkpt lat="50.482147" lon="4.325155"><time>2026-05-02T19:53:17Z</time></trkpt>
<trkpt lat="50.481707" lon="4.325318"><time>2026-05-02T20:03:17Z</time></trkpt>
<trkpt lat="50.480764" lon="4.325123"><time>2026-05-02T20:13:17Z</time></trkpt>
</trkseg></trk>
<trk>
<name>hccgp134</name>
<cmt>s</cmt>
<desc>Gouy-lez-Piéton Sentier n°134 </desc>
<link href="https://chemins.be/gouylezpieton/sentier/134"/><trkseg>
<trkpt lat="50.480764" lon="4.325123"><time>2026-05-02T20:13:17Z</time></trkpt>
<trkpt lat="50.479626" lon="4.324888"><time>2026-05-02T20:23:17Z</time></trkpt>
</trkseg></trk>
<trk>
<name>hccgp134</name>
<cmt>d</cmt>
<desc>Gouy-lez-Piéton Sentier n°134 </desc>
<link href="https://chemins.be/gouylezpieton/sentier/134"/><trkseg>
<trkpt lat="50.479626" lon="4.324888"><time>2026-05-02T20:23:17Z</time></trkpt>
<trkpt lat="50.479233" lon="4.324807"><time>2026-05-02T20:33:17Z</time></trkpt>
<trkpt lat="50.478119" lon="4.323124"><time>2026-05-02T20:43:17Z</time></trkpt>
<trkpt lat="50.476273" lon="4.323468"><time>2026-05-02T20:53:17Z</time></trkpt>
<trkpt lat="50.474636" lon="4.323713"><time>2026-05-02T21:03:17Z</time></trkpt>
<trkpt lat="50.473959" lon="4.324460"><time>2026-05-02T21:13:17Z</time></trkpt>
</trkseg>
</trk>
<trk>
<name>hccgp136</name>
<cmt>q</cmt>
<desc>Gouy-lez-Piéton Sentier n°136 </desc>
<link href="https://chemins.be/gouylezpieton/sentier/136"/><trkseg>
<trkpt lat="50.486280" lon="4.318058"><time>2026-05-02T19:03:17Z</time></trkpt>
<trkpt lat="50.483407" lon="4.313904"><time>2026-05-02T19:13:17Z</time></trkpt>
</trkseg>
</trk>
<trk>
<name>hccgp137</name>
<cmt>q</cmt>
<desc>Gouy-lez-Piéton Sentier n°137 </desc>
<link href="https://chemins.be/gouylezpieton/sentier/137"/><trkseg>
<trkpt lat="50.484068" lon="4.318642"><time>2026-05-02T19:03:17Z</time></trkpt>
<trkpt lat="50.482151" lon="4.316762"><time>2026-05-02T19:13:17Z</time></trkpt>
<trkpt lat="50.481004" lon="4.313930"><time>2026-05-02T19:23:17Z</time></trkpt>
</trkseg>
</trk>
<trk>
<name>hccgp138</name>
<cmt>d</cmt>
<desc>Gouy-lez-Piéton Sentier n°138 </desc>
<link href="https://chemins.be/gouylezpieton/sentier/138"/><trkseg>
<trkpt lat="50.472063" lon="4.314299"><time>2026-05-02T19:03:17Z</time></trkpt>
<trkpt lat="50.472283" lon="4.314051"><time>2026-05-02T19:13:17Z</time></trkpt>
</trkseg></trk>
<trk>
<name>hccgp138</name>
<cmt>s</cmt>
<desc>Gouy-lez-Piéton Sentier n°138 </desc>
<link href="https://chemins.be/gouylezpieton/sentier/138"/><trkseg>
<trkpt lat="50.472283" lon="4.314051"><time>2026-05-02T19:13:17Z</time></trkpt>
<trkpt lat="50.472794" lon="4.313475"><time>2026-05-02T19:23:17Z</time></trkpt>
</trkseg></trk>
<trk>
<name>hccgp138</name>
<cmt>d</cmt>
<desc>Gouy-lez-Piéton Sentier n°138 </desc>
<link href="https://chemins.be/gouylezpieton/sentier/138"/><trkseg>
<trkpt lat="50.472794" lon="4.313475"><time>2026-05-02T19:23:17Z</time></trkpt>
<trkpt lat="50.473118" lon="4.313110"><time>2026-05-02T19:33:17Z</time></trkpt>
<trkpt lat="50.474718" lon="4.311318"><time>2026-05-02T19:43:17Z</time></trkpt>
<trkpt lat="50.478183" lon="4.308207"><time>2026-05-02T19:53:17Z</time></trkpt>
</trkseg></trk>
<trk>
<name>hccgp138</name>
<cmt>s</cmt>
<desc>Gouy-lez-Piéton Sentier n°138 </desc>
<link href="https://chemins.be/gouylezpieton/sentier/138"/><trkseg>
<trkpt lat="50.478183" lon="4.308207"><time>2026-05-02T19:53:17Z</time></trkpt>
<trkpt lat="50.479391" lon="4.307005"><time>2026-05-02T20:03:17Z</time></trkpt>
</trkseg></trk>
<trk>
<name>hccgp138</name>
<cmt>q</cmt>
<desc>Gouy-lez-Piéton Sentier n°138 </desc>
<link href="https://chemins.be/gouylezpieton/sentier/138"/><trkseg>
<trkpt lat="50.479391" lon="4.307005"><time>2026-05-02T20:03:17Z</time></trkpt>
<trkpt lat="50.480173" lon="4.306405"><time>2026-05-02T20:13:17Z</time></trkpt>
<trkpt lat="50.481330" lon="4.303795"><time>2026-05-02T20:23:17Z</time></trkpt>
<trkpt lat="50.482532" lon="4.303023"><time>2026-05-02T20:33:17Z</time></trkpt>
<trkpt lat="50.484585" lon="4.299950"><time>2026-05-02T20:43:17Z</time></trkpt>
</trkseg>
</trk>
<trk>
<name>hccgp139</name>
<cmt>q</cmt>
<desc>Gouy-lez-Piéton Sentier n°139 </desc>
<link href="https://chemins.be/gouylezpieton/sentier/139"/><trkseg>
<trkpt lat="50.491782" lon="4.343660"><time>2026-05-02T19:03:17Z</time></trkpt>
<trkpt lat="50.492378" lon="4.344740"><time>2026-05-02T19:13:17Z</time></trkpt>
<trkpt lat="50.492946" lon="4.349068"><time>2026-05-02T19:23:17Z</time></trkpt>
<trkpt lat="50.492878" lon="4.349161"><time>2026-05-02T19:33:17Z</time></trkpt>
</trkseg>
</trk>
<trk>
<name>hccgp14</name>
<cmt>q</cmt>
<desc>Gouy-lez-Piéton Chemin n°14 </desc>
<link href="https://chemins.be/gouylezpieton/chemin/14"/><trkseg>
<trkpt lat="50.493548" lon="4.284756"><time>2026-05-02T19:03:17Z</time></trkpt>
<trkpt lat="50.493352" lon="4.284567"><time>2026-05-02T19:13:17Z</time></trkpt>
<trkpt lat="50.493068" lon="4.285314"><time>2026-05-02T19:23:17Z</time></trkpt>
</trkseg>
</trk>
<trk>
<name>hccgp140</name>
<cmt>q</cmt>
<desc>Gouy-lez-Piéton Sentier n°140 Rue du Chaufour</desc>
<link href="https://chemins.be/gouylezpieton/sentier/140"/><trkseg>
<trkpt lat="50.484729" lon="4.319758"><time>2026-05-02T19:03:17Z</time></trkpt>
<trkpt lat="50.484374" lon="4.319432"><time>2026-05-02T19:13:17Z</time></trkpt>
<trkpt lat="50.484123" lon="4.318650"><time>2026-05-02T19:23:17Z</time></trkpt>
<trkpt lat="50.483776" lon="4.316064"><time>2026-05-02T19:33:17Z</time></trkpt>
</trkseg></trk>
<trk>
<name>hccgp140</name>
<cmt>r</cmt>
<desc>Gouy-lez-Piéton Sentier n°140 Rue du Chaufour</desc>
<link href="https://chemins.be/gouylezpieton/sentier/140"/><trkseg>
<trkpt lat="50.483776" lon="4.316064"><time>2026-05-02T19:33:17Z</time></trkpt>
<trkpt lat="50.482929" lon="4.311343"><time>2026-05-02T19:43:17Z</time></trkpt>
</trkseg></trk>
<trk>
<name>hccgp140</name>
<cmt>q</cmt>
<desc>Gouy-lez-Piéton Sentier n°140 Rue du Chaufour</desc>
<link href="https://chemins.be/gouylezpieton/sentier/140"/><trkseg>
<trkpt lat="50.482929" lon="4.311343"><time>2026-05-02T19:43:17Z</time></trkpt>
<trkpt lat="50.481500" lon="4.308282"><time>2026-05-02T19:53:17Z</time></trkpt>
<trkpt lat="50.480017" lon="4.306651"><time>2026-05-02T20:03:17Z</time></trkpt>
<trkpt lat="50.479279" lon="4.305378"><time>2026-05-02T20:13:17Z</time></trkpt>
</trkseg>
</trk>
<trk>
<name>hccgp143</name>
<cmt>q</cmt>
<desc>Gouy-lez-Piéton Sentier n°143 Rue Fontaine de la Justice</desc>
<link href="https://chemins.be/gouylezpieton/sentier/143"/><trkseg>
<trkpt lat="50.484119" lon="4.345655"><time>2026-05-02T19:03:17Z</time></trkpt>
<trkpt lat="50.485353" lon="4.344689"><time>2026-05-02T19:13:17Z</time></trkpt>
<trkpt lat="50.489867" lon="4.340340"><time>2026-05-02T19:23:17Z</time></trkpt>
</trkseg>
</trk>
<trk>
<name>hccgp144</name>
<cmt>q</cmt>
<desc>Gouy-lez-Piéton Sentier n°144 </desc>
<link href="https://chemins.be/gouylezpieton/sentier/144"/><trkseg>
<trkpt lat="50.496130" lon="4.311566"><time>2026-05-02T19:03:17Z</time></trkpt>
<trkpt lat="50.496544" lon="4.312327"><time>2026-05-02T19:13:17Z</time></trkpt>
<trkpt lat="50.497443" lon="4.312143"><time>2026-05-02T19:23:17Z</time></trkpt>
</trkseg>
</trk>
<trk>
<name>hccgp145</name>
<cmt>v</cmt>
<desc>Gouy-lez-Piéton Sentier n°145 </desc>
<link href="https://chemins.be/gouylezpieton/sentier/145"/><trkseg>
<trkpt lat="50.504331" lon="4.298898"><time>2026-05-02T19:03:17Z</time></trkpt>
<trkpt lat="50.504286" lon="4.298560"><time>2026-05-02T19:13:17Z</time></trkpt>
<trkpt lat="50.504142" lon="4.298193"><time>2026-05-02T19:23:17Z</time></trkpt>
</trkseg>
</trk>
<trk>
<name>hccgp16</name>
<cmt>v</cmt>
<desc>Gouy-lez-Piéton Chemin n°16 Chemin de Trazegnies à Pont-à-Cells</desc>
<link href="https://chemins.be/gouylezpieton/chemin/16"/><trkseg>
<trkpt lat="50.491511" lon="4.343535"><time>2026-05-02T19:03:17Z</time></trkpt>
<trkpt lat="50.490342" lon="4.343521"><time>2026-05-02T19:13:17Z</time></trkpt>
<trkpt lat="50.486459" lon="4.345609"><time>2026-05-02T19:23:17Z</time></trkpt>
<trkpt lat="50.484831" lon="4.344989"><time>2026-05-02T19:33:17Z</time></trkpt>
<trkpt lat="50.484049" lon="4.344778"><time>2026-05-02T19:43:17Z</time></trkpt>
<trkpt lat="50.482431" lon="4.344314"><time>2026-05-02T19:53:17Z</time></trkpt>
</trkseg></trk>
<trk>
<name>hccgp16</name>
<cmt>s</cmt>
<desc>Gouy-lez-Piéton Chemin n°16 Chemin de Trazegnies à Pont-à-Cells</desc>
<link href="https://chemins.be/gouylezpieton/chemin/16"/><trkseg>
<trkpt lat="50.482431" lon="4.344314"><time>2026-05-02T19:53:17Z</time></trkpt>
<trkpt lat="50.481254" lon="4.343930"><time>2026-05-02T20:03:17Z</time></trkpt>
</trkseg></trk>
<trk>
<name>hccgp16</name>
<cmt>v</cmt>
<desc>Gouy-lez-Piéton Chemin n°16 Chemin de Trazegnies à Pont-à-Cells</desc>
<link href="https://chemins.be/gouylezpieton/chemin/16"/><trkseg>
<trkpt lat="50.481254" lon="4.343930"><time>2026-05-02T20:03:17Z</time></trkpt>
<trkpt lat="50.479442" lon="4.344322"><time>2026-05-02T20:13:17Z</time></trkpt>
<trkpt lat="50.478110" lon="4.343988"><time>2026-05-02T20:23:17Z</time></trkpt>
<trkpt lat="50.475967" lon="4.341647"><time>2026-05-02T20:33:17Z</time></trkpt>
</trkseg>
</trk>
<trk>
<name>hccgp17</name>
<cmt>r</cmt>
<desc>Gouy-lez-Piéton Chemin n°17 Rue de Trazegnies</desc>
<link href="https://chemins.be/gouylezpieton/chemin/17"/><trkseg>
<trkpt lat="50.491790" lon="4.343563"><time>2026-05-02T19:03:17Z</time></trkpt>
<trkpt lat="50.492266" lon="4.344986"><time>2026-05-02T19:13:17Z</time></trkpt>
<trkpt lat="50.492599" lon="4.347269"><time>2026-05-02T19:23:17Z</time></trkpt>
<trkpt lat="50.493068" lon="4.350566"><time>2026-05-02T19:33:17Z</time></trkpt>
<trkpt lat="50.493203" lon="4.351666"><time>2026-05-02T19:43:17Z</time></trkpt>
</trkseg></trk>
<trk>
<name>hccgp17</name>
<cmt>d</cmt>
<desc>Gouy-lez-Piéton Chemin n°17 Rue de Trazegnies</desc>
<link href="https://chemins.be/gouylezpieton/chemin/17"/><trkseg>
<trkpt lat="50.493203" lon="4.351666"><time>2026-05-02T19:43:17Z</time></trkpt>
<trkpt lat="50.493194" lon="4.352384"><time>2026-05-02T19:53:17Z</time></trkpt>
<trkpt lat="50.493194" lon="4.353019"><time>2026-05-02T20:03:17Z</time></trkpt>
<trkpt lat="50.493401" lon="4.354202"><time>2026-05-02T20:13:17Z</time></trkpt>
</trkseg>
</trk>
<trk>
<name>hccgp18</name>
<cmt>v</cmt>
<desc>Gouy-lez-Piéton Chemin n°18 </desc>
<link href="https://chemins.be/gouylezpieton/chemin/18"/><trkseg>
<trkpt lat="50.489404" lon="4.306231"><time>2026-05-02T19:03:17Z</time></trkpt>
<trkpt lat="50.490192" lon="4.306889"><time>2026-05-02T19:13:17Z</time></trkpt>
<trkpt lat="50.490401" lon="4.307354"><time>2026-05-02T19:23:17Z</time></trkpt>
</trkseg></trk>
<trk>
<name>hccgp18</name>
<cmt>s</cmt>
<desc>Gouy-lez-Piéton Chemin n°18 </desc>
<link href="https://chemins.be/gouylezpieton/chemin/18"/><trkseg>
<trkpt lat="50.490401" lon="4.307354"><time>2026-05-02T19:23:17Z</time></trkpt>
<trkpt lat="50.490705" lon="4.307766"><time>2026-05-02T19:33:17Z</time></trkpt>
</trkseg></trk>
<trk>
<name>hccgp18</name>
<cmt>v</cmt>
<desc>Gouy-lez-Piéton Chemin n°18 </desc>
<link href="https://chemins.be/gouylezpieton/chemin/18"/><trkseg>
<trkpt lat="50.490705" lon="4.307766"><time>2026-05-02T19:33:17Z</time></trkpt>
<trkpt lat="50.491227" lon="4.308562"><time>2026-05-02T19:43:17Z</time></trkpt>
<trkpt lat="50.491466" lon="4.308756"><time>2026-05-02T19:53:17Z</time></trkpt>
</trkseg></trk>
<trk>
<name>hccgp18</name>
<cmt>s</cmt>
<desc>Gouy-lez-Piéton Chemin n°18 </desc>
<link href="https://chemins.be/gouylezpieton/chemin/18"/><trkseg>
<trkpt lat="50.491466" lon="4.308756"><time>2026-05-02T19:53:17Z</time></trkpt>
<trkpt lat="50.491967" lon="4.309119"><time>2026-05-02T20:03:17Z</time></trkpt>
</trkseg></trk>
<trk>
<name>hccgp18</name>
<cmt>d</cmt>
<desc>Gouy-lez-Piéton Chemin n°18 </desc>
<link href="https://chemins.be/gouylezpieton/chemin/18"/><trkseg>
<trkpt lat="50.491967" lon="4.309119"><time>2026-05-02T20:03:17Z</time></trkpt>
<trkpt lat="50.492232" lon="4.309281"><time>2026-05-02T20:13:17Z</time></trkpt>
<trkpt lat="50.492584" lon="4.308871"><time>2026-05-02T20:23:17Z</time></trkpt>
<trkpt lat="50.493301" lon="4.308276"><time>2026-05-02T20:33:17Z</time></trkpt>
</trkseg>
</trk>
<trk>
<name>hccgp19</name>
<cmt>v</cmt>
<desc>Gouy-lez-Piéton Chemin n°19 </desc>
<link href="https://chemins.be/gouylezpieton/chemin/19"/><trkseg>
<trkpt lat="50.483271" lon="4.313329"><time>2026-05-02T19:03:17Z</time></trkpt>
<trkpt lat="50.481731" lon="4.314273"><time>2026-05-02T19:13:17Z</time></trkpt>
<trkpt lat="50.481012" lon="4.313836"><time>2026-05-02T19:23:17Z</time></trkpt>
</trkseg></trk>
<trk>
<name>hccgp19</name>
<cmt>s</cmt>
<desc>Gouy-lez-Piéton Chemin n°19 </desc>
<link href="https://chemins.be/gouylezpieton/chemin/19"/><trkseg>
<trkpt lat="50.481012" lon="4.313836"><time>2026-05-02T19:23:17Z</time></trkpt>
<trkpt lat="50.480573" lon="4.313569"><time>2026-05-02T19:33:17Z</time></trkpt>
<trkpt lat="50.479033" lon="4.313174"><time>2026-05-02T19:43:17Z</time></trkpt>
<trkpt lat="50.477165" lon="4.313346"><time>2026-05-02T19:53:17Z</time></trkpt>
</trkseg></trk>
<trk>
<name>hccgp19</name>
<cmt>v</cmt>
<desc>Gouy-lez-Piéton Chemin n°19 </desc>
<link href="https://chemins.be/gouylezpieton/chemin/19"/><trkseg>
<trkpt lat="50.477165" lon="4.313346"><time>2026-05-02T19:53:17Z</time></trkpt>
<trkpt lat="50.475974" lon="4.312831"><time>2026-05-02T20:03:17Z</time></trkpt>
<trkpt lat="50.474772" lon="4.311338"><time>2026-05-02T20:13:17Z</time></trkpt>
<trkpt lat="50.474417" lon="4.311072"><time>2026-05-02T20:23:17Z</time></trkpt>
<trkpt lat="50.472079" lon="4.309346"><time>2026-05-02T20:33:17Z</time></trkpt>
</trkseg>
</trk>
<trk>
<name>hccgp2</name>
<cmt>v</cmt>
<desc>Gouy-lez-Piéton Chemin n°2 </desc>
<link href="https://chemins.be/gouylezpieton/chemin/2"/><trkseg>
<trkpt lat="50.484067" lon="4.345666"><time>2026-05-02T19:03:17Z</time></trkpt>
<trkpt lat="50.484067" lon="4.344652"><time>2026-05-02T19:13:17Z</time></trkpt>
<trkpt lat="50.485118" lon="4.339339"><time>2026-05-02T19:23:17Z</time></trkpt>
<trkpt lat="50.485306" lon="4.337352"><time>2026-05-02T19:33:17Z</time></trkpt>
<trkpt lat="50.485782" lon="4.334167"><time>2026-05-02T19:43:17Z</time></trkpt>
<trkpt lat="50.486024" lon="4.333152"><time>2026-05-02T19:53:17Z</time></trkpt>
</trkseg>
</trk>
<trk>
<name>hccgp20</name>
<cmt>v</cmt>
<desc>Gouy-lez-Piéton Chemin n°20 Chemin n°20</desc>
<link href="https://chemins.be/gouylezpieton/chemin/20"/><trkseg>
<trkpt lat="50.501261" lon="4.302489"><time>2026-05-02T19:03:17Z</time></trkpt>
<trkpt lat="50.502976" lon="4.303368"><time>2026-05-02T19:13:17Z</time></trkpt>
<trkpt lat="50.504918" lon="4.303013"><time>2026-05-02T19:23:17Z</time></trkpt>
<trkpt lat="50.506797" lon="4.303391"><time>2026-05-02T19:33:17Z</time></trkpt>
<trkpt lat="50.510456" lon="4.304416"><time>2026-05-02T19:43:17Z</time></trkpt>
<trkpt lat="50.511122" lon="4.304964"><time>2026-05-02T19:53:17Z</time></trkpt>
<trkpt lat="50.512364" lon="4.307049"><time>2026-05-02T20:03:17Z</time></trkpt>
<trkpt lat="50.513696" lon="4.309360"><time>2026-05-02T20:13:17Z</time></trkpt>
<trkpt lat="50.515126" lon="4.311276"><time>2026-05-02T20:23:17Z</time></trkpt>
<trkpt lat="50.515629" lon="4.311374"><time>2026-05-02T20:33:17Z</time></trkpt>
<trkpt lat="50.516583" lon="4.312402"><time>2026-05-02T20:43:17Z</time></trkpt>
<trkpt lat="50.517554" lon="4.312457"><time>2026-05-02T20:53:17Z</time></trkpt>
<trkpt lat="50.518273" lon="4.312696"><time>2026-05-02T21:03:17Z</time></trkpt>
<trkpt lat="50.519955" lon="4.314203"><time>2026-05-02T21:13:17Z</time></trkpt>
<trkpt lat="50.520315" lon="4.315303"><time>2026-05-02T21:23:17Z</time></trkpt>
</trkseg>
</trk>
<trk>
<name>hccgp21</name>
<cmt>v</cmt>
<desc>Gouy-lez-Piéton Chemin n°21 </desc>
<link href="https://chemins.be/gouylezpieton/chemin/21"/><trkseg>
<trkpt lat="50.513718" lon="4.323247"><time>2026-05-02T19:03:17Z</time></trkpt>
<trkpt lat="50.510530" lon="4.324294"><time>2026-05-02T19:13:17Z</time></trkpt>
<trkpt lat="50.508878" lon="4.325999"><time>2026-05-02T19:23:17Z</time></trkpt>
<trkpt lat="50.507735" lon="4.328301"><time>2026-05-02T19:33:17Z</time></trkpt>
</trkseg></trk>
<trk>
<name>hccgp21</name>
<cmt>d</cmt>
<desc>Gouy-lez-Piéton Chemin n°21 </desc>
<link href="https://chemins.be/gouylezpieton/chemin/21"/><trkseg>
<trkpt lat="50.507735" lon="4.328301"><time>2026-05-02T19:33:17Z</time></trkpt>
<trkpt lat="50.507312" lon="4.329151"><time>2026-05-02T19:43:17Z</time></trkpt>
</trkseg>
</trk>
<trk>
<name>hccgp22</name>
<cmt>v</cmt>
<desc>Gouy-lez-Piéton Chemin n°22 Rue de Trazegnies</desc>
<link href="https://chemins.be/gouylezpieton/chemin/22"/><trkseg>
<trkpt lat="50.486522" lon="4.345721"><time>2026-05-02T19:03:17Z</time></trkpt>
<trkpt lat="50.487646" lon="4.346327"><time>2026-05-02T19:13:17Z</time></trkpt>
<trkpt lat="50.490181" lon="4.348905"><time>2026-05-02T19:23:17Z</time></trkpt>
<trkpt lat="50.491530" lon="4.350229"><time>2026-05-02T19:33:17Z</time></trkpt>
<trkpt lat="50.492321" lon="4.351412"><time>2026-05-02T19:43:17Z</time></trkpt>
<trkpt lat="50.493140" lon="4.352356"><time>2026-05-02T19:53:17Z</time></trkpt>
</trkseg></trk>
<trk>
<name>hccgp22</name>
<cmt>r</cmt>
<desc>Gouy-lez-Piéton Chemin n°22 Rue de Trazegnies</desc>
<link href="https://chemins.be/gouylezpieton/chemin/22"/><trkseg>
<trkpt lat="50.493140" lon="4.352356"><time>2026-05-02T19:53:17Z</time></trkpt>
<trkpt lat="50.493967" lon="4.353314"><time>2026-05-02T20:03:17Z</time></trkpt>
</trkseg>
</trk>
<trk>
<name>hccgp24</name>
<cmt>v</cmt>
<desc>Gouy-lez-Piéton Chemin n°24 </desc>
<link href="https://chemins.be/gouylezpieton/chemin/24"/><trkseg>
<trkpt lat="50.500890" lon="4.302892"><time>2026-05-02T19:03:17Z</time></trkpt>
<trkpt lat="50.499875" lon="4.304021"><time>2026-05-02T19:13:17Z</time></trkpt>
<trkpt lat="50.498258" lon="4.306603"><time>2026-05-02T19:23:17Z</time></trkpt>
<trkpt lat="50.496227" lon="4.309029"><time>2026-05-02T19:33:17Z</time></trkpt>
</trkseg>
</trk>
<trk>
<name>hccgp25</name>
<cmt>v</cmt>
<desc>Gouy-lez-Piéton Chemin n°25 Rue de Bernimont</desc>
<link href="https://chemins.be/gouylezpieton/chemin/25"/><trkseg>
<trkpt lat="50.508159" lon="4.318265"><time>2026-05-02T19:03:17Z</time></trkpt>
<trkpt lat="50.510769" lon="4.317504"><time>2026-05-02T19:13:17Z</time></trkpt>
<trkpt lat="50.512250" lon="4.317815"><time>2026-05-02T19:23:17Z</time></trkpt>
<trkpt lat="50.512813" lon="4.317482"><time>2026-05-02T19:33:17Z</time></trkpt>
<trkpt lat="50.513143" lon="4.317294"><time>2026-05-02T19:43:17Z</time></trkpt>
<trkpt lat="50.514815" lon="4.317359"><time>2026-05-02T19:53:17Z</time></trkpt>
<trkpt lat="50.515320" lon="4.317670"><time>2026-05-02T20:03:17Z</time></trkpt>
<trkpt lat="50.515842" lon="4.317557"><time>2026-05-02T20:13:17Z</time></trkpt>
<trkpt lat="50.516476" lon="4.318464"><time>2026-05-02T20:23:17Z</time></trkpt>
<trkpt lat="50.518833" lon="4.319633"><time>2026-05-02T20:33:17Z</time></trkpt>
</trkseg>
</trk>
<trk>
<name>hccgp26</name>
<cmt>v</cmt>
<desc>Gouy-lez-Piéton Chemin n°26 </desc>
<link href="https://chemins.be/gouylezpieton/chemin/26"/><trkseg>
<trkpt lat="50.511130" lon="4.324097"><time>2026-05-02T19:03:17Z</time></trkpt>
<trkpt lat="50.510564" lon="4.323585"><time>2026-05-02T19:13:17Z</time></trkpt>
<trkpt lat="50.509827" lon="4.323950"><time>2026-05-02T19:23:17Z</time></trkpt>
<trkpt lat="50.507487" lon="4.324529"><time>2026-05-02T19:33:17Z</time></trkpt>
<trkpt lat="50.506777" lon="4.324357"><time>2026-05-02T19:43:17Z</time></trkpt>
</trkseg>
</trk>
<trk>
<name>hccgp27</name>
<cmt>v</cmt>
<desc>Gouy-lez-Piéton Chemin n°27 Rue des Champs-Élysées</desc>
<link href="https://chemins.be/gouylezpieton/chemin/27"/><trkseg>
<trkpt lat="50.495814" lon="4.331045"><time>2026-05-02T19:03:17Z</time></trkpt>
<trkpt lat="50.496102" lon="4.330749"><time>2026-05-02T19:13:17Z</time></trkpt>
<trkpt lat="50.496551" lon="4.330509"><time>2026-05-02T19:23:17Z</time></trkpt>
<trkpt lat="50.497055" lon="4.330861"><time>2026-05-02T19:33:17Z</time></trkpt>
<trkpt lat="50.498682" lon="4.330324"><time>2026-05-02T19:43:17Z</time></trkpt>
<trkpt lat="50.500030" lon="4.330647"><time>2026-05-02T19:53:17Z</time></trkpt>
<trkpt lat="50.501621" lon="4.330547"><time>2026-05-02T20:03:17Z</time></trkpt>
</trkseg>
</trk>
<trk>
<name>hccgp29</name>
<cmt>r</cmt>
<desc>Gouy-lez-Piéton Chemin n°29 Rue Fond des Rys</desc>
<link href="https://chemins.be/gouylezpieton/chemin/29"/><trkseg>
<trkpt lat="50.494531" lon="4.334696"><time>2026-05-02T19:03:17Z</time></trkpt>
<trkpt lat="50.494999" lon="4.335246"><time>2026-05-02T19:13:17Z</time></trkpt>
<trkpt lat="50.495306" lon="4.335847"><time>2026-05-02T19:23:17Z</time></trkpt>
<trkpt lat="50.495670" lon="4.336323"><time>2026-05-02T19:33:17Z</time></trkpt>
</trkseg></trk>
<trk>
<name>hccgp29</name>
<cmt>v</cmt>
<desc>Gouy-lez-Piéton Chemin n°29 Rue Fond des Rys</desc>
<link href="https://chemins.be/gouylezpieton/chemin/29"/><trkseg>
<trkpt lat="50.495670" lon="4.336323"><time>2026-05-02T19:33:17Z</time></trkpt>
<trkpt lat="50.497021" lon="4.338021"><time>2026-05-02T19:43:17Z</time></trkpt>
<trkpt lat="50.497956" lon="4.338852"><time>2026-05-02T19:53:17Z</time></trkpt>
<trkpt lat="50.499809" lon="4.343079"><time>2026-05-02T20:03:17Z</time></trkpt>
</trkseg>
</trk>
<trk>
<name>hccgp3</name>
<cmt>v</cmt>
<desc>Gouy-lez-Piéton Chemin n°3 Chaussée Romaine</desc>
<link href="https://chemins.be/gouylezpieton/chemin/3"/><trkseg>
<trkpt lat="50.469017" lon="4.298372"><time>2026-05-02T19:03:17Z</time></trkpt>
<trkpt lat="50.469315" lon="4.300315"><time>2026-05-02T19:13:17Z</time></trkpt>
<trkpt lat="50.470492" lon="4.304171"><time>2026-05-02T19:23:17Z</time></trkpt>
</trkseg></trk>
<trk>
<name>hccgp3</name>
<cmt>r</cmt>
<desc>Gouy-lez-Piéton Chemin n°3 Chaussée Romaine</desc>
<link href="https://chemins.be/gouylezpieton/chemin/3"/><trkseg>
<trkpt lat="50.470492" lon="4.304171"><time>2026-05-02T19:23:17Z</time></trkpt>
<trkpt lat="50.472062" lon="4.309313"><time>2026-05-02T19:33:17Z</time></trkpt>
<trkpt lat="50.473198" lon="4.313689"><time>2026-05-02T19:43:17Z</time></trkpt>
<trkpt lat="50.473843" lon="4.316538"><time>2026-05-02T19:53:17Z</time></trkpt>
</trkseg></trk>
<trk>
<name>hccgp3</name>
<cmt>v</cmt>
<desc>Gouy-lez-Piéton Chemin n°3 Chaussée Romaine</desc>
<link href="https://chemins.be/gouylezpieton/chemin/3"/><trkseg>
<trkpt lat="50.473843" lon="4.316538"><time>2026-05-02T19:53:17Z</time></trkpt>
<trkpt lat="50.476518" lon="4.324114"><time>2026-05-02T20:03:17Z</time></trkpt>
<trkpt lat="50.477464" lon="4.329101"><time>2026-05-02T20:13:17Z</time></trkpt>
<trkpt lat="50.477464" lon="4.329453"><time>2026-05-02T20:23:17Z</time></trkpt>
<trkpt lat="50.478950" lon="4.335313"><time>2026-05-02T20:33:17Z</time></trkpt>
<trkpt lat="50.481370" lon="4.343948"><time>2026-05-02T20:43:17Z</time></trkpt>
</trkseg></trk>
<trk>
<name>hccgp3</name>
<cmt>s</cmt>
<desc>Gouy-lez-Piéton Chemin n°3 Chaussée Romaine</desc>
<link href="https://chemins.be/gouylezpieton/chemin/3"/><trkseg>
<trkpt lat="50.481370" lon="4.343948"><time>2026-05-02T20:43:17Z</time></trkpt>
<trkpt lat="50.482684" lon="4.349387"><time>2026-05-02T20:53:17Z</time></trkpt>
</trkseg></trk>
<trk>
<name>hccgp3</name>
<cmt>v</cmt>
<desc>Gouy-lez-Piéton Chemin n°3 Chaussée Romaine</desc>
<link href="https://chemins.be/gouylezpieton/chemin/3"/><trkseg>
<trkpt lat="50.482684" lon="4.349387"><time>2026-05-02T20:53:17Z</time></trkpt>
<trkpt lat="50.483772" lon="4.353191"><time>2026-05-02T21:03:17Z</time></trkpt>
<trkpt lat="50.486083" lon="4.362180"><time>2026-05-02T21:13:17Z</time></trkpt>
</trkseg>
</trk>
<trk>
<name>hccgp30</name>
<cmt>d</cmt>
<desc>Gouy-lez-Piéton Chemin n°30 Chemin Vert</desc>
<link href="https://chemins.be/gouylezpieton/chemin/30"/><trkseg>
<trkpt lat="50.510691" lon="4.291078"><time>2026-05-02T19:03:17Z</time></trkpt>
<trkpt lat="50.511690" lon="4.292669"><time>2026-05-02T19:13:17Z</time></trkpt>
<trkpt lat="50.512033" lon="4.295249"><time>2026-05-02T19:23:17Z</time></trkpt>
</trkseg>
</trk>
<trk>
<name>hccgp33</name>
<cmt>v</cmt>
<desc>Gouy-lez-Piéton Chemin n°33 </desc>
<link href="https://chemins.be/gouylezpieton/chemin/33"/><trkseg>
<trkpt lat="50.486320" lon="4.308069"><time>2026-05-02T19:03:17Z</time></trkpt>
<trkpt lat="50.485726" lon="4.307380"><time>2026-05-02T19:13:17Z</time></trkpt>
<trkpt lat="50.484413" lon="4.306945"><time>2026-05-02T19:23:17Z</time></trkpt>
<trkpt lat="50.480979" lon="4.307259"><time>2026-05-02T19:33:17Z</time></trkpt>
</trkseg>
</trk>
<trk>
<name>hccgp34</name>
<cmt>v</cmt>
<desc>Gouy-lez-Piéton Chemin n°34 </desc>
<link href="https://chemins.be/gouylezpieton/chemin/34"/><trkseg>
<trkpt lat="50.497064" lon="4.293468"><time>2026-05-02T19:03:17Z</time></trkpt>
<trkpt lat="50.497614" lon="4.296568"><time>2026-05-02T19:13:17Z</time></trkpt>
</trkseg>
</trk>
<trk>
<name>hccgp36</name>
<cmt>q</cmt>
<desc>Gouy-lez-Piéton Chemin n°36 </desc>
<link href="https://chemins.be/gouylezpieton/chemin/36"/><trkseg>
<trkpt lat="50.484130" lon="4.345976"><time>2026-05-02T19:03:17Z</time></trkpt>
<trkpt lat="50.484211" lon="4.346652"><time>2026-05-02T19:13:17Z</time></trkpt>
<trkpt lat="50.484230" lon="4.347864"><time>2026-05-02T19:23:17Z</time></trkpt>
<trkpt lat="50.484248" lon="4.350654"><time>2026-05-02T19:33:17Z</time></trkpt>
<trkpt lat="50.483826" lon="4.352303"><time>2026-05-02T19:43:17Z</time></trkpt>
<trkpt lat="50.483826" lon="4.353162"><time>2026-05-02T19:53:17Z</time></trkpt>
</trkseg>
</trk>
<trk>
<name>hccgp38</name>
<cmt>r</cmt>
<desc>Gouy-lez-Piéton Chemin n°38 Ruelle à l'Eau</desc>
<link href="https://chemins.be/gouylezpieton/chemin/38"/><trkseg>
<trkpt lat="50.493650" lon="4.315924"><time>2026-05-02T19:03:17Z</time></trkpt>
<trkpt lat="50.493282" lon="4.316390"><time>2026-05-02T19:13:17Z</time></trkpt>
<trkpt lat="50.493318" lon="4.316700"><time>2026-05-02T19:23:17Z</time></trkpt>
<trkpt lat="50.493471" lon="4.317277"><time>2026-05-02T19:33:17Z</time></trkpt>
<trkpt lat="50.493633" lon="4.317489"><time>2026-05-02T19:43:17Z</time></trkpt>
<trkpt lat="50.493804" lon="4.317489"><time>2026-05-02T19:53:17Z</time></trkpt>
<trkpt lat="50.494208" lon="4.317108"><time>2026-05-02T20:03:17Z</time></trkpt>
</trkseg>
</trk>
<trk>
<name>hccgp38bis</name>
<cmt>d</cmt>
<desc>Gouy-lez-Piéton Chemin n°38bis </desc>
<link href="https://chemins.be/gouylezpieton/chemin/38bis"/><trkseg>
<trkpt lat="50.493392" lon="4.316998"><time>2026-05-02T19:03:17Z</time></trkpt>
<trkpt lat="50.492855" lon="4.317255"><time>2026-05-02T19:13:17Z</time></trkpt>
</trkseg>
</trk>
<trk>
<name>hccgp39</name>
<cmt>v</cmt>
<desc>Gouy-lez-Piéton Chemin n°39 </desc>
<link href="https://chemins.be/gouylezpieton/chemin/39"/><trkseg>
<trkpt lat="50.508121" lon="4.318238"><time>2026-05-02T19:03:17Z</time></trkpt>
<trkpt lat="50.508564" lon="4.320728"><time>2026-05-02T19:13:17Z</time></trkpt>
<trkpt lat="50.508598" lon="4.322294"><time>2026-05-02T19:23:17Z</time></trkpt>
</trkseg>
</trk>
<trk>
<name>hccgp4</name>
<cmt>v</cmt>
<desc>Gouy-lez-Piéton Chemin n°4 Rue Vert Fagot / Rue des Nauwes</desc>
<link href="https://chemins.be/gouylezpieton/chemin/4"/><trkseg>
<trkpt lat="50.508932" lon="4.295268"><time>2026-05-02T19:03:17Z</time></trkpt>
<trkpt lat="50.508187" lon="4.297186"><time>2026-05-02T19:13:17Z</time></trkpt>
<trkpt lat="50.505455" lon="4.299502"><time>2026-05-02T19:23:17Z</time></trkpt>
<trkpt lat="50.504350" lon="4.300237"><time>2026-05-02T19:33:17Z</time></trkpt>
<trkpt lat="50.503298" lon="4.300591"><time>2026-05-02T19:43:17Z</time></trkpt>
<trkpt lat="50.501977" lon="4.301664"><time>2026-05-02T19:53:17Z</time></trkpt>
<trkpt lat="50.500913" lon="4.302889"><time>2026-05-02T20:03:17Z</time></trkpt>
</trkseg></trk>
<trk>
<name>hccgp4</name>
<cmt>r</cmt>
<desc>Gouy-lez-Piéton Chemin n°4 Rue Vert Fagot / Rue des Nauwes</desc>
<link href="https://chemins.be/gouylezpieton/chemin/4"/><trkseg>
<trkpt lat="50.500913" lon="4.302889"><time>2026-05-02T20:03:17Z</time></trkpt>
<trkpt lat="50.501350" lon="4.303951"><time>2026-05-02T20:13:17Z</time></trkpt>
<trkpt lat="50.501926" lon="4.306598"><time>2026-05-02T20:23:17Z</time></trkpt>
<trkpt lat="50.502522" lon="4.310967"><time>2026-05-02T20:33:17Z</time></trkpt>
<trkpt lat="50.502630" lon="4.312602"><time>2026-05-02T20:43:17Z</time></trkpt>
<trkpt lat="50.502209" lon="4.315943"><time>2026-05-02T20:53:17Z</time></trkpt>
<trkpt lat="50.502282" lon="4.317324"><time>2026-05-02T21:03:17Z</time></trkpt>
</trkseg>
</trk>
<trk>
<name>hccgp41</name>
<cmt>q</cmt>
<desc>Gouy-lez-Piéton Chemin n°41 Rue Roulez</desc>
<link href="https://chemins.be/gouylezpieton/chemin/41"/><trkseg>
<trkpt lat="50.488805" lon="4.325446"><time>2026-05-02T19:03:17Z</time></trkpt>
<trkpt lat="50.490618" lon="4.324759"><time>2026-05-02T19:13:17Z</time></trkpt>
<trkpt lat="50.491666" lon="4.324811"><time>2026-05-02T19:23:17Z</time></trkpt>
<trkpt lat="50.492016" lon="4.325000"><time>2026-05-02T19:33:17Z</time></trkpt>
</trkseg>
</trk>
<trk>
<name>hccgp43</name>
<cmt>q</cmt>
<desc>Gouy-lez-Piéton Chemin n°43 </desc>
<link href="https://chemins.be/gouylezpieton/chemin/43"/><trkseg>
<trkpt lat="50.489558" lon="4.295932"><time>2026-05-02T19:03:17Z</time></trkpt>
<trkpt lat="50.490314" lon="4.296269"><time>2026-05-02T19:13:17Z</time></trkpt>
<trkpt lat="50.491582" lon="4.297282"><time>2026-05-02T19:23:17Z</time></trkpt>
<trkpt lat="50.492292" lon="4.297732"><time>2026-05-02T19:33:17Z</time></trkpt>
<trkpt lat="50.493183" lon="4.297928"><time>2026-05-02T19:43:17Z</time></trkpt>
</trkseg>
</trk>
<trk>
<name>hccgp45</name>
<cmt>v</cmt>
<desc>Gouy-lez-Piéton Chemin n°45 </desc>
<link href="https://chemins.be/gouylezpieton/chemin/45"/><trkseg>
<trkpt lat="50.484566" lon="4.318355"><time>2026-05-02T19:03:17Z</time></trkpt>
<trkpt lat="50.482882" lon="4.319707"><time>2026-05-02T19:13:17Z</time></trkpt>
<trkpt lat="50.482122" lon="4.320050"><time>2026-05-02T19:23:17Z</time></trkpt>
<trkpt lat="50.481827" lon="4.320102"><time>2026-05-02T19:33:17Z</time></trkpt>
</trkseg></trk>
<trk>
<name>hccgp45</name>
<cmt>q</cmt>
<desc>Gouy-lez-Piéton Chemin n°45 </desc>
<link href="https://chemins.be/gouylezpieton/chemin/45"/><trkseg>
<trkpt lat="50.481827" lon="4.320102"><time>2026-05-02T19:33:17Z</time></trkpt>
<trkpt lat="50.480852" lon="4.320374"><time>2026-05-02T19:43:17Z</time></trkpt>
</trkseg></trk>
<trk>
<name>hccgp45</name>
<cmt>s</cmt>
<desc>Gouy-lez-Piéton Chemin n°45 </desc>
<link href="https://chemins.be/gouylezpieton/chemin/45"/><trkseg>
<trkpt lat="50.480852" lon="4.320374"><time>2026-05-02T19:43:17Z</time></trkpt>
<trkpt lat="50.479450" lon="4.320765"><time>2026-05-02T19:53:17Z</time></trkpt>
</trkseg>
</trk>
<trk>
<name>hccgp46</name>
<cmt>q</cmt>
<desc>Gouy-lez-Piéton Chemin n°46 </desc>
<link href="https://chemins.be/gouylezpieton/chemin/46"/><trkseg>
<trkpt lat="50.494289" lon="4.316995"><time>2026-05-02T19:03:17Z</time></trkpt>
<trkpt lat="50.494595" lon="4.316839"><time>2026-05-02T19:13:17Z</time></trkpt>
<trkpt lat="50.494685" lon="4.316557"><time>2026-05-02T19:23:17Z</time></trkpt>
<trkpt lat="50.495682" lon="4.315697"><time>2026-05-02T19:33:17Z</time></trkpt>
</trkseg>
</trk>
<trk>
<name>hccgp47</name>
<cmt>q</cmt>
<desc>Gouy-lez-Piéton Chemin n°47 </desc>
<link href="https://chemins.be/gouylezpieton/chemin/47"/><trkseg>
<trkpt lat="50.495446" lon="4.285111"><time>2026-05-02T19:03:17Z</time></trkpt>
<trkpt lat="50.495449" lon="4.284450"><time>2026-05-02T19:13:17Z</time></trkpt>
<trkpt lat="50.495782" lon="4.283682"><time>2026-05-02T19:23:17Z</time></trkpt>
</trkseg>
</trk>
<trk>
<name>hccgp49</name>
<cmt>q</cmt>
<desc>Gouy-lez-Piéton Chemin n°49 Rue de Nivelles</desc>
<link href="https://chemins.be/gouylezpieton/chemin/49"/><trkseg>
<trkpt lat="50.500837" lon="4.320817"><time>2026-05-02T19:03:17Z</time></trkpt>
<trkpt lat="50.498980" lon="4.322598"><time>2026-05-02T19:13:17Z</time></trkpt>
</trkseg>
</trk>
<trk>
<name>hccgp50</name>
<cmt>q</cmt>
<desc>Gouy-lez-Piéton Sentier n°50 </desc>
<link href="https://chemins.be/gouylezpieton/sentier/50"/><trkseg>
<trkpt lat="50.488643" lon="4.327883"><time>2026-05-02T19:03:17Z</time></trkpt>
<trkpt lat="50.488558" lon="4.327886"><time>2026-05-02T19:13:17Z</time></trkpt>
<trkpt lat="50.488024" lon="4.328162"><time>2026-05-02T19:23:17Z</time></trkpt>
<trkpt lat="50.487962" lon="4.328248"><time>2026-05-02T19:33:17Z</time></trkpt>
</trkseg>
</trk>
<trk>
<name>hccgp51</name>
<cmt>q</cmt>
<desc>Gouy-lez-Piéton Sentier n°51 </desc>
<link href="https://chemins.be/gouylezpieton/sentier/51"/><trkseg>
<trkpt lat="50.493992" lon="4.329961"><time>2026-05-02T19:03:17Z</time></trkpt>
<trkpt lat="50.493989" lon="4.330014"><time>2026-05-02T19:13:17Z</time></trkpt>
<trkpt lat="50.494315" lon="4.330286"><time>2026-05-02T19:23:17Z</time></trkpt>
<trkpt lat="50.494394" lon="4.330240"><time>2026-05-02T19:33:17Z</time></trkpt>
</trkseg>
</trk>
<trk>
<name>hccgp52</name>
<cmt>q</cmt>
<desc>Gouy-lez-Piéton Chemin n°52 </desc>
<link href="https://chemins.be/gouylezpieton/chemin/52"/><trkseg>
<trkpt lat="50.494683" lon="4.335120"><time>2026-05-02T19:03:17Z</time></trkpt>
<trkpt lat="50.494707" lon="4.335107"><time>2026-05-02T19:13:17Z</time></trkpt>
<trkpt lat="50.495130" lon="4.335388"><time>2026-05-02T19:23:17Z</time></trkpt>
<trkpt lat="50.495277" lon="4.335660"><time>2026-05-02T19:33:17Z</time></trkpt>
</trkseg>
</trk>
<trk>
<name>hccgp53</name>
<cmt>r</cmt>
<desc>Gouy-lez-Piéton Chemin n°53 Rue des Nardons</desc>
<link href="https://chemins.be/gouylezpieton/chemin/53"/><trkseg>
<trkpt lat="50.496226" lon="4.306140"><time>2026-05-02T19:03:17Z</time></trkpt>
<trkpt lat="50.495093" lon="4.306226"><time>2026-05-02T19:13:17Z</time></trkpt>
</trkseg>
</trk>
<trk>
<name>hccgp54</name>
<cmt>q</cmt>
<desc>Gouy-lez-Piéton Chemin n°54 </desc>
<link href="https://chemins.be/gouylezpieton/chemin/54"/><trkseg>
<trkpt lat="50.495267" lon="4.317991"><time>2026-05-02T19:03:17Z</time></trkpt>
<trkpt lat="50.495301" lon="4.318016"><time>2026-05-02T19:13:17Z</time></trkpt>
<trkpt lat="50.496309" lon="4.320319"><time>2026-05-02T19:23:17Z</time></trkpt>
<trkpt lat="50.497662" lon="4.323141"><time>2026-05-02T19:33:17Z</time></trkpt>
<trkpt lat="50.497662" lon="4.323216"><time>2026-05-02T19:43:17Z</time></trkpt>
</trkseg>
</trk>
<trk>
<name>hccgp56</name>
<cmt>q</cmt>
<desc>Gouy-lez-Piéton Chemin n°56 </desc>
<link href="https://chemins.be/gouylezpieton/chemin/56"/><trkseg>
<trkpt lat="50.502076" lon="4.319636"><time>2026-05-02T19:03:17Z</time></trkpt>
<trkpt lat="50.502274" lon="4.319609"><time>2026-05-02T19:13:17Z</time></trkpt>
<trkpt lat="50.503553" lon="4.318788"><time>2026-05-02T19:23:17Z</time></trkpt>
<trkpt lat="50.503553" lon="4.318708"><time>2026-05-02T19:33:17Z</time></trkpt>
</trkseg>
</trk>
<trk>
<name>hccgp57</name>
<cmt>q</cmt>
<desc>Gouy-lez-Piéton Chemin n°57 </desc>
<link href="https://chemins.be/gouylezpieton/chemin/57"/><trkseg>
<trkpt lat="50.492491" lon="4.343421"><time>2026-05-02T19:03:17Z</time></trkpt>
<trkpt lat="50.492230" lon="4.344549"><time>2026-05-02T19:13:17Z</time></trkpt>
</trkseg>
</trk>
<trk>
<name>hccgp58</name>
<cmt>q</cmt>
<desc>Gouy-lez-Piéton Chemin n°58 </desc>
<link href="https://chemins.be/gouylezpieton/chemin/58"/><trkseg>
<trkpt lat="50.507702" lon="4.316565"><time>2026-05-02T19:03:17Z</time></trkpt>
<trkpt lat="50.508937" lon="4.316275"><time>2026-05-02T19:13:17Z</time></trkpt>
<trkpt lat="50.512130" lon="4.314677"><time>2026-05-02T19:23:17Z</time></trkpt>
<trkpt lat="50.512963" lon="4.314376"><time>2026-05-02T19:33:17Z</time></trkpt>
<trkpt lat="50.514736" lon="4.311844"><time>2026-05-02T19:43:17Z</time></trkpt>
<trkpt lat="50.515651" lon="4.311361"><time>2026-05-02T19:53:17Z</time></trkpt>
<trkpt lat="50.520508" lon="4.304774"><time>2026-05-02T20:03:17Z</time></trkpt>
</trkseg>
</trk>
<trk>
<name>hccgp6</name>
<cmt>v</cmt>
<desc>Gouy-lez-Piéton Chemin n°6 </desc>
<link href="https://chemins.be/gouylezpieton/chemin/6"/><trkseg>
<trkpt lat="50.472820" lon="4.332617"><time>2026-05-02T19:03:17Z</time></trkpt>
<trkpt lat="50.473585" lon="4.332634"><time>2026-05-02T19:13:17Z</time></trkpt>
<trkpt lat="50.475410" lon="4.332943"><time>2026-05-02T19:23:17Z</time></trkpt>
<trkpt lat="50.476422" lon="4.334355"><time>2026-05-02T19:33:17Z</time></trkpt>
<trkpt lat="50.477275" lon="4.334471"><time>2026-05-02T19:43:17Z</time></trkpt>
<trkpt lat="50.478094" lon="4.335072"><time>2026-05-02T19:53:17Z</time></trkpt>
<trkpt lat="50.478940" lon="4.335271"><time>2026-05-02T20:03:17Z</time></trkpt>
<trkpt lat="50.480583" lon="4.334406"><time>2026-05-02T20:13:17Z</time></trkpt>
</trkseg></trk>
<trk>
<name>hccgp6</name>
<cmt>s</cmt>
<desc>Gouy-lez-Piéton Chemin n°6 </desc>
<link href="https://chemins.be/gouylezpieton/chemin/6"/><trkseg>
<trkpt lat="50.480583" lon="4.334406"><time>2026-05-02T20:13:17Z</time></trkpt>
<trkpt lat="50.481010" lon="4.334149"><time>2026-05-02T20:23:17Z</time></trkpt>
<trkpt lat="50.481292" lon="4.334145"><time>2026-05-02T20:33:17Z</time></trkpt>
</trkseg></trk>
<trk>
<name>hccgp6</name>
<cmt>q</cmt>
<desc>Gouy-lez-Piéton Chemin n°6 </desc>
<link href="https://chemins.be/gouylezpieton/chemin/6"/><trkseg>
<trkpt lat="50.481292" lon="4.334145"><time>2026-05-02T20:33:17Z</time></trkpt>
<trkpt lat="50.483492" lon="4.333849"><time>2026-05-02T20:43:17Z</time></trkpt>
</trkseg></trk>
<trk>
<name>hccgp6</name>
<cmt>r</cmt>
<desc>Gouy-lez-Piéton Chemin n°6 </desc>
<link href="https://chemins.be/gouylezpieton/chemin/6"/><trkseg>
<trkpt lat="50.483492" lon="4.333849"><time>2026-05-02T20:43:17Z</time></trkpt>
<trkpt lat="50.485510" lon="4.333257"><time>2026-05-02T20:53:17Z</time></trkpt>
</trkseg>
</trk>
<trk>
<name>hccgp60</name>
<cmt>q</cmt>
<desc>Gouy-lez-Piéton Chemin n°60 </desc>
<link href="https://chemins.be/gouylezpieton/chemin/60"/><trkseg>
<trkpt lat="50.508289" lon="4.297288"><time>2026-05-02T19:03:17Z</time></trkpt>
<trkpt lat="50.509421" lon="4.298179"><time>2026-05-02T19:13:17Z</time></trkpt>
<trkpt lat="50.513606" lon="4.298465"><time>2026-05-02T19:23:17Z</time></trkpt>
</trkseg>
</trk>
<trk>
<name>hccgp61</name>
<cmt>r</cmt>
<desc>Gouy-lez-Piéton Chemin n°61 Rue Vert Fagot</desc>
<link href="https://chemins.be/gouylezpieton/chemin/61"/><trkseg>
<trkpt lat="50.505194" lon="4.299038"><time>2026-05-02T19:03:17Z</time></trkpt>
<trkpt lat="50.505383" lon="4.299700"><time>2026-05-02T19:13:17Z</time></trkpt>
</trkseg></trk>
<trk>
<name>hccgp61</name>
<cmt>q</cmt>
<desc>Gouy-lez-Piéton Chemin n°61 Rue Vert Fagot</desc>
<link href="https://chemins.be/gouylezpieton/chemin/61"/><trkseg>
<trkpt lat="50.505383" lon="4.299700"><time>2026-05-02T19:13:17Z</time></trkpt>
<trkpt lat="50.506662" lon="4.303392"><time>2026-05-02T19:23:17Z</time></trkpt>
<trkpt lat="50.507229" lon="4.305350"><time>2026-05-02T19:33:17Z</time></trkpt>
<trkpt lat="50.507429" lon="4.309001"><time>2026-05-02T19:43:17Z</time></trkpt>
<trkpt lat="50.507494" lon="4.312018"><time>2026-05-02T19:53:17Z</time></trkpt>
<trkpt lat="50.507935" lon="4.313230"><time>2026-05-02T20:03:17Z</time></trkpt>
<trkpt lat="50.508501" lon="4.314047"><time>2026-05-02T20:13:17Z</time></trkpt>
<trkpt lat="50.508933" lon="4.315076"><time>2026-05-02T20:23:17Z</time></trkpt>
</trkseg>
</trk>
<trk>
<name>hccgp62</name>
<cmt>q</cmt>
<desc>Gouy-lez-Piéton Sentier n°62 </desc>
<link href="https://chemins.be/gouylezpieton/sentier/62"/><trkseg>
<trkpt lat="50.508773" lon="4.315481"><time>2026-05-02T19:03:17Z</time></trkpt>
<trkpt lat="50.508930" lon="4.316286"><time>2026-05-02T19:13:17Z</time></trkpt>
<trkpt lat="50.510315" lon="4.317605"><time>2026-05-02T19:23:17Z</time></trkpt>
<trkpt lat="50.511216" lon="4.320105"><time>2026-05-02T19:33:17Z</time></trkpt>
<trkpt lat="50.511702" lon="4.320649"><time>2026-05-02T19:43:17Z</time></trkpt>
<trkpt lat="50.513044" lon="4.322155"><time>2026-05-02T19:53:17Z</time></trkpt>
<trkpt lat="50.513747" lon="4.323399"><time>2026-05-02T20:03:17Z</time></trkpt>
</trkseg>
</trk>
<trk>
<name>hccgp63</name>
<cmt>q</cmt>
<desc>Gouy-lez-Piéton Sentier n°63 </desc>
<link href="https://chemins.be/gouylezpieton/sentier/63"/><trkseg>
<trkpt lat="50.510537" lon="4.324327"><time>2026-05-02T19:03:17Z</time></trkpt>
<trkpt lat="50.511683" lon="4.320674"><time>2026-05-02T19:13:17Z</time></trkpt>
<trkpt lat="50.512877" lon="4.317782"><time>2026-05-02T19:23:17Z</time></trkpt>
</trkseg>
</trk>
<trk>
<name>hccgp64</name>
<cmt>q</cmt>
<desc>Gouy-lez-Piéton Sentier n°64 Rue de Morelmont</desc>
<link href="https://chemins.be/gouylezpieton/sentier/64"/><trkseg>
<trkpt lat="50.508040" lon="4.318083"><time>2026-05-02T19:03:17Z</time></trkpt>
<trkpt lat="50.508074" lon="4.318957"><time>2026-05-02T19:13:17Z</time></trkpt>
<trkpt lat="50.508555" lon="4.321479"><time>2026-05-02T19:23:17Z</time></trkpt>
</trkseg></trk>
<trk>
<name>hccgp64</name>
<cmt>v</cmt>
<desc>Gouy-lez-Piéton Sentier n°64 Rue de Morelmont</desc>
<link href="https://chemins.be/gouylezpieton/sentier/64"/><trkseg>
<trkpt lat="50.508555" lon="4.321479"><time>2026-05-02T19:23:17Z</time></trkpt>
<trkpt lat="50.508603" lon="4.322401"><time>2026-05-02T19:33:17Z</time></trkpt>
</trkseg></trk>
<trk>
<name>hccgp64</name>
<cmt>r</cmt>
<desc>Gouy-lez-Piéton Sentier n°64 Rue de Morelmont</desc>
<link href="https://chemins.be/gouylezpieton/sentier/64"/><trkseg>
<trkpt lat="50.508603" lon="4.322401"><time>2026-05-02T19:33:17Z</time></trkpt>
<trkpt lat="50.508971" lon="4.322337"><time>2026-05-02T19:43:17Z</time></trkpt>
</trkseg></trk>
<trk>
<name>hccgp64</name>
<cmt>q</cmt>
<desc>Gouy-lez-Piéton Sentier n°64 Rue de Morelmont</desc>
<link href="https://chemins.be/gouylezpieton/sentier/64"/><trkseg>
<trkpt lat="50.508971" lon="4.322337"><time>2026-05-02T19:43:17Z</time></trkpt>
<trkpt lat="50.510561" lon="4.323539"><time>2026-05-02T19:53:17Z</time></trkpt>
</trkseg>
</trk>
<trk>
<name>hccgp65</name>
<cmt>q</cmt>
<desc>Gouy-lez-Piéton Sentier n°65 </desc>
<link href="https://chemins.be/gouylezpieton/sentier/65"/><trkseg>
<trkpt lat="50.508214" lon="4.319751"><time>2026-05-02T19:03:17Z</time></trkpt>
<trkpt lat="50.507228" lon="4.322669"><time>2026-05-02T19:13:17Z</time></trkpt>
</trkseg>
</trk>
<trk>
<name>hccgp66</name>
<cmt>q</cmt>
<desc>Gouy-lez-Piéton Sentier n°66 </desc>
<link href="https://chemins.be/gouylezpieton/sentier/66"/><trkseg>
<trkpt lat="50.507430" lon="4.328517"><time>2026-05-02T19:03:17Z</time></trkpt>
<trkpt lat="50.506890" lon="4.327927"><time>2026-05-02T19:13:17Z</time></trkpt>
<trkpt lat="50.506174" lon="4.325277"><time>2026-05-02T19:23:17Z</time></trkpt>
<trkpt lat="50.505956" lon="4.322337"><time>2026-05-02T19:33:17Z</time></trkpt>
</trkseg>
</trk>
<trk>
<name>hccgp67</name>
<cmt>q</cmt>
<desc>Gouy-lez-Piéton Sentier n°67 </desc>
<link href="https://chemins.be/gouylezpieton/sentier/67"/><trkseg>
<trkpt lat="50.507668" lon="4.316801"><time>2026-05-02T19:03:17Z</time></trkpt>
<trkpt lat="50.507409" lon="4.316930"><time>2026-05-02T19:13:17Z</time></trkpt>
<trkpt lat="50.506221" lon="4.316361"><time>2026-05-02T19:23:17Z</time></trkpt>
<trkpt lat="50.506051" lon="4.316511"><time>2026-05-02T19:33:17Z</time></trkpt>
<trkpt lat="50.504113" lon="4.312842"><time>2026-05-02T19:43:17Z</time></trkpt>
</trkseg>
</trk>
<trk>
<name>hccgp68</name>
<cmt>r</cmt>
<desc>Gouy-lez-Piéton Sentier n°68 </desc>
<link href="https://chemins.be/gouylezpieton/sentier/68"/><trkseg>
<trkpt lat="50.507770" lon="4.316061"><time>2026-05-02T19:03:17Z</time></trkpt>
<trkpt lat="50.507238" lon="4.314135"><time>2026-05-02T19:13:17Z</time></trkpt>
</trkseg></trk>
<trk>
<name>hccgp68</name>
<cmt>q</cmt>
<desc>Gouy-lez-Piéton Sentier n°68 </desc>
<link href="https://chemins.be/gouylezpieton/sentier/68"/><trkseg>
<trkpt lat="50.507238" lon="4.314135"><time>2026-05-02T19:13:17Z</time></trkpt>
<trkpt lat="50.506303" lon="4.312831"><time>2026-05-02T19:23:17Z</time></trkpt>
<trkpt lat="50.504659" lon="4.312520"><time>2026-05-02T19:33:17Z</time></trkpt>
<trkpt lat="50.504597" lon="4.312971"><time>2026-05-02T19:43:17Z</time></trkpt>
<trkpt lat="50.504188" lon="4.312897"><time>2026-05-02T19:53:17Z</time></trkpt>
<trkpt lat="50.503537" lon="4.312779"><time>2026-05-02T20:03:17Z</time></trkpt>
<trkpt lat="50.502578" lon="4.312606"><time>2026-05-02T20:13:17Z</time></trkpt>
<trkpt lat="50.499848" lon="4.312702"><time>2026-05-02T20:23:17Z</time></trkpt>
</trkseg>
</trk>
<trk>
<name>hccgp69</name>
<cmt>q</cmt>
<desc>Gouy-lez-Piéton Sentier n°69 Rue de Malhian</desc>
<link href="https://chemins.be/gouylezpieton/sentier/69"/><trkseg>
<trkpt lat="50.504913" lon="4.335929"><time>2026-05-02T19:03:17Z</time></trkpt>
<trkpt lat="50.504095" lon="4.333801"><time>2026-05-02T19:13:17Z</time></trkpt>
<trkpt lat="50.502134" lon="4.330476"><time>2026-05-02T19:23:17Z</time></trkpt>
</trkseg></trk>
<trk>
<name>hccgp69</name>
<cmt>v</cmt>
<desc>Gouy-lez-Piéton Sentier n°69 Rue de Malhian</desc>
<link href="https://chemins.be/gouylezpieton/sentier/69"/><trkseg>
<trkpt lat="50.502134" lon="4.330476"><time>2026-05-02T19:23:17Z</time></trkpt>
<trkpt lat="50.501397" lon="4.330547"><time>2026-05-02T19:33:17Z</time></trkpt>
</trkseg></trk>
<trk>
<name>hccgp69</name>
<cmt>q</cmt>
<desc>Gouy-lez-Piéton Sentier n°69 Rue de Malhian</desc>
<link href="https://chemins.be/gouylezpieton/sentier/69"/><trkseg>
<trkpt lat="50.501397" lon="4.330547"><time>2026-05-02T19:33:17Z</time></trkpt>
<trkpt lat="50.501639" lon="4.328743"><time>2026-05-02T19:43:17Z</time></trkpt>
<trkpt lat="50.501656" lon="4.327700"><time>2026-05-02T19:53:17Z</time></trkpt>
<trkpt lat="50.497107" lon="4.325857"><time>2026-05-02T20:03:17Z</time></trkpt>
</trkseg>
</trk>
<trk>
<name>hccgp7</name>
<cmt>v</cmt>
<desc>Gouy-lez-Piéton Chemin n°7 </desc>
<link href="https://chemins.be/gouylezpieton/chemin/7"/><trkseg>
<trkpt lat="50.486286" lon="4.318135"><time>2026-05-02T19:03:17Z</time></trkpt>
<trkpt lat="50.485750" lon="4.314505"><time>2026-05-02T19:13:17Z</time></trkpt>
</trkseg>
</trk>
<trk>
<name>hccgp70</name>
<cmt>q</cmt>
<desc>Gouy-lez-Piéton Sentier n°70 </desc>
<link href="https://chemins.be/gouylezpieton/sentier/70"/><trkseg>
<trkpt lat="50.493757" lon="4.337854"><time>2026-05-02T19:03:17Z</time></trkpt>
<trkpt lat="50.495079" lon="4.339248"><time>2026-05-02T19:13:17Z</time></trkpt>
<trkpt lat="50.496734" lon="4.340939"><time>2026-05-02T19:23:17Z</time></trkpt>
<trkpt lat="50.497291" lon="4.341403"><time>2026-05-02T19:33:17Z</time></trkpt>
<trkpt lat="50.497570" lon="4.341995"><time>2026-05-02T19:43:17Z</time></trkpt>
</trkseg>
</trk>
<trk>
<name>hccgp71</name>
<cmt>q</cmt>
<desc>Gouy-lez-Piéton Sentier n°71 </desc>
<link href="https://chemins.be/gouylezpieton/sentier/71"/><trkseg>
<trkpt lat="50.496298" lon="4.306225"><time>2026-05-02T19:03:17Z</time></trkpt>
<trkpt lat="50.496828" lon="4.306478"><time>2026-05-02T19:13:17Z</time></trkpt>
<trkpt lat="50.498176" lon="4.306887"><time>2026-05-02T19:23:17Z</time></trkpt>
<trkpt lat="50.500257" lon="4.308271"><time>2026-05-02T19:33:17Z</time></trkpt>
<trkpt lat="50.502523" lon="4.311168"><time>2026-05-02T19:43:17Z</time></trkpt>
</trkseg>
</trk>
<trk>
<name>hccgp72</name>
<cmt>v</cmt>
<desc>Gouy-lez-Piéton Sentier n°72 Rue Champêtre</desc>
<link href="https://chemins.be/gouylezpieton/sentier/72"/><trkseg>
<trkpt lat="50.495036" lon="4.317558"><time>2026-05-02T19:03:17Z</time></trkpt>
<trkpt lat="50.495747" lon="4.315643"><time>2026-05-02T19:13:17Z</time></trkpt>
</trkseg></trk>
<trk>
<name>hccgp72</name>
<cmt>q</cmt>
<desc>Gouy-lez-Piéton Sentier n°72 Rue Champêtre</desc>
<link href="https://chemins.be/gouylezpieton/sentier/72"/><trkseg>
<trkpt lat="50.495747" lon="4.315643"><time>2026-05-02T19:13:17Z</time></trkpt>
<trkpt lat="50.496014" lon="4.314287"><time>2026-05-02T19:23:17Z</time></trkpt>
<trkpt lat="50.497479" lon="4.312213"><time>2026-05-02T19:33:17Z</time></trkpt>
<trkpt lat="50.497838" lon="4.311889"><time>2026-05-02T19:43:17Z</time></trkpt>
<trkpt lat="50.499753" lon="4.312718"><time>2026-05-02T19:53:17Z</time></trkpt>
<trkpt lat="50.502333" lon="4.310897"><time>2026-05-02T20:03:17Z</time></trkpt>
</trkseg>
</trk>
<trk>
<name>hccgp73</name>
<cmt>q</cmt>
<desc>Gouy-lez-Piéton Sentier n°73 </desc>
<link href="https://chemins.be/gouylezpieton/sentier/73"/><trkseg>
<trkpt lat="50.496831" lon="4.313089"><time>2026-05-02T19:03:17Z</time></trkpt>
<trkpt lat="50.497343" lon="4.311436"><time>2026-05-02T19:13:17Z</time></trkpt>
<trkpt lat="50.497951" lon="4.306962"><time>2026-05-02T19:23:17Z</time></trkpt>
</trkseg>
</trk>
<trk>
<name>hccgp74</name>
<cmt>q</cmt>
<desc>Gouy-lez-Piéton Sentier n°74 Rue Champêtre</desc>
<link href="https://chemins.be/gouylezpieton/sentier/74"/><trkseg>
<trkpt lat="50.501595" lon="4.319859"><time>2026-05-02T19:03:17Z</time></trkpt>
<trkpt lat="50.497323" lon="4.317348"><time>2026-05-02T19:13:17Z</time></trkpt>
<trkpt lat="50.495745" lon="4.315688"><time>2026-05-02T19:23:17Z</time></trkpt>
</trkseg></trk>
<trk>
<name>hccgp74</name>
<cmt>v</cmt>
<desc>Gouy-lez-Piéton Sentier n°74 Rue Champêtre</desc>
<link href="https://chemins.be/gouylezpieton/sentier/74"/><trkseg>
<trkpt lat="50.495745" lon="4.315688"><time>2026-05-02T19:23:17Z</time></trkpt>
<trkpt lat="50.495655" lon="4.315387"><time>2026-05-02T19:33:17Z</time></trkpt>
</trkseg></trk>
<trk>
<name>hccgp74</name>
<cmt>r</cmt>
<desc>Gouy-lez-Piéton Sentier n°74 Rue Champêtre</desc>
<link href="https://chemins.be/gouylezpieton/sentier/74"/><trkseg>
<trkpt lat="50.495655" lon="4.315387"><time>2026-05-02T19:33:17Z</time></trkpt>
<trkpt lat="50.495016" lon="4.313668"><time>2026-05-02T19:43:17Z</time></trkpt>
<trkpt lat="50.495043" lon="4.313625"><time>2026-05-02T19:53:17Z</time></trkpt>
</trkseg></trk>
<trk>
<name>hccgp74</name>
<cmt>v</cmt>
<desc>Gouy-lez-Piéton Sentier n°74 Rue Champêtre</desc>
<link href="https://chemins.be/gouylezpieton/sentier/74"/><trkseg>
<trkpt lat="50.495043" lon="4.313625"><time>2026-05-02T19:53:17Z</time></trkpt>
<trkpt lat="50.494800" lon="4.312992"><time>2026-05-02T20:03:17Z</time></trkpt>
<trkpt lat="50.494692" lon="4.312442"><time>2026-05-02T20:13:17Z</time></trkpt>
<trkpt lat="50.493289" lon="4.311302"><time>2026-05-02T20:23:17Z</time></trkpt>
</trkseg>
</trk>
<trk>
<name>hccgp75</name>
<cmt>s</cmt>
<desc>Gouy-lez-Piéton Sentier n°75 </desc>
<link href="https://chemins.be/gouylezpieton/sentier/75"/><trkseg>
<trkpt lat="50.496449" lon="4.289517"><time>2026-05-02T19:03:17Z</time></trkpt>
<trkpt lat="50.498163" lon="4.292678"><time>2026-05-02T19:13:17Z</time></trkpt>
</trkseg></trk>
<trk>
<name>hccgp75</name>
<cmt>q</cmt>
<desc>Gouy-lez-Piéton Sentier n°75 </desc>
<link href="https://chemins.be/gouylezpieton/sentier/75"/><trkseg>
<trkpt lat="50.498163" lon="4.292678"><time>2026-05-02T19:13:17Z</time></trkpt>
<trkpt lat="50.498893" lon="4.294025"><time>2026-05-02T19:23:17Z</time></trkpt>
<trkpt lat="50.499139" lon="4.294478"><time>2026-05-02T19:33:17Z</time></trkpt>
<trkpt lat="50.499520" lon="4.295182"><time>2026-05-02T19:43:17Z</time></trkpt>
</trkseg>
</trk>
<trk>
<name>hccgp76</name>
<cmt>q</cmt>
<desc>Gouy-lez-Piéton Sentier n°76 </desc>
<link href="https://chemins.be/gouylezpieton/sentier/76"/><trkseg>
<trkpt lat="50.504113" lon="4.312906"><time>2026-05-02T19:03:17Z</time></trkpt>
<trkpt lat="50.504481" lon="4.318067"><time>2026-05-02T19:13:17Z</time></trkpt>
</trkseg>
</trk>
<trk>
<name>hccgp77</name>
<cmt>q</cmt>
<desc>Gouy-lez-Piéton Sentier n°77 </desc>
<link href="https://chemins.be/gouylezpieton/sentier/77"/><trkseg>
<trkpt lat="50.497623" lon="4.296577"><time>2026-05-02T19:03:17Z</time></trkpt>
<trkpt lat="50.497771" lon="4.297417"><time>2026-05-02T19:13:17Z</time></trkpt>
</trkseg></trk>
<trk>
<name>hccgp77</name>
<cmt>s</cmt>
<desc>Gouy-lez-Piéton Sentier n°77 </desc>
<link href="https://chemins.be/gouylezpieton/sentier/77"/><trkseg>
<trkpt lat="50.497771" lon="4.297417"><time>2026-05-02T19:13:17Z</time></trkpt>
<trkpt lat="50.498039" lon="4.298948"><time>2026-05-02T19:23:17Z</time></trkpt>
</trkseg></trk>
<trk>
<name>hccgp77</name>
<cmt>q</cmt>
<desc>Gouy-lez-Piéton Sentier n°77 </desc>
<link href="https://chemins.be/gouylezpieton/sentier/77"/><trkseg>
<trkpt lat="50.498039" lon="4.298948"><time>2026-05-02T19:23:17Z</time></trkpt>
<trkpt lat="50.500408" lon="4.296631"><time>2026-05-02T19:33:17Z</time></trkpt>
</trkseg></trk>
<trk>
<name>hccgp77</name>
<cmt>s</cmt>
<desc>Gouy-lez-Piéton Sentier n°77 </desc>
<link href="https://chemins.be/gouylezpieton/sentier/77"/><trkseg>
<trkpt lat="50.500408" lon="4.296631"><time>2026-05-02T19:33:17Z</time></trkpt>
<trkpt lat="50.499967" lon="4.295907"><time>2026-05-02T19:43:17Z</time></trkpt>
</trkseg></trk>
<trk>
<name>hccgp77</name>
<cmt>q</cmt>
<desc>Gouy-lez-Piéton Sentier n°77 </desc>
<link href="https://chemins.be/gouylezpieton/sentier/77"/><trkseg>
<trkpt lat="50.499967" lon="4.295907"><time>2026-05-02T19:43:17Z</time></trkpt>
<trkpt lat="50.499514" lon="4.295161"><time>2026-05-02T19:53:17Z</time></trkpt>
<trkpt lat="50.501043" lon="4.292832"><time>2026-05-02T20:03:17Z</time></trkpt>
<trkpt lat="50.505083" lon="4.286681"><time>2026-05-02T20:13:17Z</time></trkpt>
</trkseg>
</trk>
<trk>
<name>hccgp78</name>
<cmt>q</cmt>
<desc>Gouy-lez-Piéton Sentier n°78 </desc>
<link href="https://chemins.be/gouylezpieton/sentier/78"/><trkseg>
<trkpt lat="50.499394" lon="4.301882"><time>2026-05-02T19:03:17Z</time></trkpt>
<trkpt lat="50.498445" lon="4.299989"><time>2026-05-02T19:13:17Z</time></trkpt>
<trkpt lat="50.498258" lon="4.299377"><time>2026-05-02T19:23:17Z</time></trkpt>
<trkpt lat="50.500544" lon="4.297371"><time>2026-05-02T19:33:17Z</time></trkpt>
<trkpt lat="50.502018" lon="4.294635"><time>2026-05-02T19:43:17Z</time></trkpt>
</trkseg>
</trk>
<trk>
<name>hccgp79</name>
<cmt>r</cmt>
<desc>Gouy-lez-Piéton Sentier n°79 Rue des Communes</desc>
<link href="https://chemins.be/gouylezpieton/sentier/79"/><trkseg>
<trkpt lat="50.502489" lon="4.299753"><time>2026-05-02T19:03:17Z</time></trkpt>
<trkpt lat="50.501846" lon="4.298149"><time>2026-05-02T19:13:17Z</time></trkpt>
</trkseg></trk>
<trk>
<name>hccgp79</name>
<cmt>v</cmt>
<desc>Gouy-lez-Piéton Sentier n°79 Rue des Communes</desc>
<link href="https://chemins.be/gouylezpieton/sentier/79"/><trkseg>
<trkpt lat="50.501846" lon="4.298149"><time>2026-05-02T19:13:17Z</time></trkpt>
<trkpt lat="50.501692" lon="4.297771"><time>2026-05-02T19:23:17Z</time></trkpt>
</trkseg></trk>
<trk>
<name>hccgp79</name>
<cmt>q</cmt>
<desc>Gouy-lez-Piéton Sentier n°79 Rue des Communes</desc>
<link href="https://chemins.be/gouylezpieton/sentier/79"/><trkseg>
<trkpt lat="50.501692" lon="4.297771"><time>2026-05-02T19:23:17Z</time></trkpt>
<trkpt lat="50.501151" lon="4.296277"><time>2026-05-02T19:33:17Z</time></trkpt>
</trkseg>
</trk>
<trk>
<name>hccgp8</name>
<cmt>v</cmt>
<desc>Gouy-lez-Piéton Chemin n°8 </desc>
<link href="https://chemins.be/gouylezpieton/chemin/8"/><trkseg>
<trkpt lat="50.507882" lon="4.315923"><time>2026-05-02T19:03:17Z</time></trkpt>
<trkpt lat="50.509059" lon="4.315160"><time>2026-05-02T19:13:17Z</time></trkpt>
<trkpt lat="50.510650" lon="4.314214"><time>2026-05-02T19:23:17Z</time></trkpt>
<trkpt lat="50.511701" lon="4.312070"><time>2026-05-02T19:33:17Z</time></trkpt>
<trkpt lat="50.513463" lon="4.311151"><time>2026-05-02T19:43:17Z</time></trkpt>
<trkpt lat="50.515315" lon="4.311332"><time>2026-05-02T19:53:17Z</time></trkpt>
<trkpt lat="50.517922" lon="4.311498"><time>2026-05-02T20:03:17Z</time></trkpt>
<trkpt lat="50.519468" lon="4.311087"><time>2026-05-02T20:13:17Z</time></trkpt>
<trkpt lat="50.520654" lon="4.310141"><time>2026-05-02T20:23:17Z</time></trkpt>
<trkpt lat="50.523010" lon="4.310590"><time>2026-05-02T20:33:17Z</time></trkpt>
<trkpt lat="50.523558" lon="4.310293"><time>2026-05-02T20:43:17Z</time></trkpt>
</trkseg>
</trk>
<trk>
<name>hccgp80</name>
<cmt>q</cmt>
<desc>Gouy-lez-Piéton Sentier n°80 </desc>
<link href="https://chemins.be/gouylezpieton/sentier/80"/><trkseg>
<trkpt lat="50.501977" lon="4.300203"><time>2026-05-02T19:03:17Z</time></trkpt>
<trkpt lat="50.501574" lon="4.299120"><time>2026-05-02T19:13:17Z</time></trkpt>
<trkpt lat="50.501957" lon="4.298315"><time>2026-05-02T19:23:17Z</time></trkpt>
</trkseg>
</trk>
<trk>
<name>hccgp81</name>
<cmt>r</cmt>
<desc>Gouy-lez-Piéton Sentier n°81 Rue des Culots</desc>
<link href="https://chemins.be/gouylezpieton/sentier/81"/><trkseg>
<trkpt lat="50.496238" lon="4.282672"><time>2026-05-02T19:03:17Z</time></trkpt>
<trkpt lat="50.496388" lon="4.283434"><time>2026-05-02T19:13:17Z</time></trkpt>
</trkseg></trk>
<trk>
<name>hccgp81</name>
<cmt>q</cmt>
<desc>Gouy-lez-Piéton Sentier n°81 Rue des Culots</desc>
<link href="https://chemins.be/gouylezpieton/sentier/81"/><trkseg>
<trkpt lat="50.496388" lon="4.283434"><time>2026-05-02T19:13:17Z</time></trkpt>
<trkpt lat="50.497627" lon="4.286447"><time>2026-05-02T19:23:17Z</time></trkpt>
<trkpt lat="50.498085" lon="4.286687"><time>2026-05-02T19:33:17Z</time></trkpt>
<trkpt lat="50.501472" lon="4.292264"><time>2026-05-02T19:43:17Z</time></trkpt>
<trkpt lat="50.501083" lon="4.292876"><time>2026-05-02T19:53:17Z</time></trkpt>
<trkpt lat="50.502004" lon="4.294542"><time>2026-05-02T20:03:17Z</time></trkpt>
</trkseg></trk>
<trk>
<name>hccgp81</name>
<cmt>s</cmt>
<desc>Gouy-lez-Piéton Sentier n°81 Rue des Culots</desc>
<link href="https://chemins.be/gouylezpieton/sentier/81"/><trkseg>
<trkpt lat="50.502004" lon="4.294542"><time>2026-05-02T20:03:17Z</time></trkpt>
<trkpt lat="50.503021" lon="4.296384"><time>2026-05-02T20:13:17Z</time></trkpt>
</trkseg></trk>
<trk>
<name>hccgp81</name>
<cmt>r</cmt>
<desc>Gouy-lez-Piéton Sentier n°81 Rue des Culots</desc>
<link href="https://chemins.be/gouylezpieton/sentier/81"/><trkseg>
<trkpt lat="50.503021" lon="4.296384"><time>2026-05-02T20:13:17Z</time></trkpt>
<trkpt lat="50.504113" lon="4.298100"><time>2026-05-02T20:23:17Z</time></trkpt>
</trkseg>
</trk>
<trk>
<name>hccgp82</name>
<cmt>q</cmt>
<desc>Gouy-lez-Piéton Sentier n°82 </desc>
<link href="https://chemins.be/gouylezpieton/sentier/82"/><trkseg>
<trkpt lat="50.503028" lon="4.284314"><time>2026-05-02T19:03:17Z</time></trkpt>
<trkpt lat="50.502393" lon="4.285333"><time>2026-05-02T19:13:17Z</time></trkpt>
<trkpt lat="50.501438" lon="4.285998"><time>2026-05-02T19:23:17Z</time></trkpt>
<trkpt lat="50.501452" lon="4.292200"><time>2026-05-02T19:33:17Z</time></trkpt>
</trkseg>
</trk>
<trk>
<name>hccgp83</name>
<cmt>q</cmt>
<desc>Gouy-lez-Piéton Sentier n°83 </desc>
<link href="https://chemins.be/gouylezpieton/sentier/83"/><trkseg>
<trkpt lat="50.501527" lon="4.283906"><time>2026-05-02T19:03:17Z</time></trkpt>
<trkpt lat="50.502240" lon="4.285430"><time>2026-05-02T19:13:17Z</time></trkpt>
</trkseg>
</trk>
<trk>
<name>hccgp84</name>
<cmt>r</cmt>
<desc>Gouy-lez-Piéton Sentier n°84 Rue du président Allende / Sentier n°84</desc>
<link href="https://chemins.be/gouylezpieton/sentier/84"/><trkseg>
<trkpt lat="50.494507" lon="4.287736"><time>2026-05-02T19:03:17Z</time></trkpt>
<trkpt lat="50.495082" lon="4.287693"><time>2026-05-02T19:13:17Z</time></trkpt>
<trkpt lat="50.496061" lon="4.287226"><time>2026-05-02T19:23:17Z</time></trkpt>
<trkpt lat="50.496565" lon="4.286929"><time>2026-05-02T19:33:17Z</time></trkpt>
</trkseg></trk>
<trk>
<name>hccgp84</name>
<cmt>v</cmt>
<desc>Gouy-lez-Piéton Sentier n°84 Rue du président Allende / Sentier n°84</desc>
<link href="https://chemins.be/gouylezpieton/sentier/84"/><trkseg>
<trkpt lat="50.496565" lon="4.286929"><time>2026-05-02T19:33:17Z</time></trkpt>
<trkpt lat="50.497571" lon="4.286434"><time>2026-05-02T19:43:17Z</time></trkpt>
<trkpt lat="50.501399" lon="4.283961"><time>2026-05-02T19:53:17Z</time></trkpt>
</trkseg>
</trk>
<trk>
<name>hccgp85</name>
<cmt>q</cmt>
<desc>Gouy-lez-Piéton Sentier n°85 </desc>
<link href="https://chemins.be/gouylezpieton/sentier/85"/><trkseg>
<trkpt lat="50.500422" lon="4.301864"><time>2026-05-02T19:03:17Z</time></trkpt>
<trkpt lat="50.500036" lon="4.303795"><time>2026-05-02T19:13:17Z</time></trkpt>
</trkseg>
</trk>
<trk>
<name>hccgp86</name>
<cmt>q</cmt>
<desc>Gouy-lez-Piéton Sentier n°86 </desc>
<link href="https://chemins.be/gouylezpieton/sentier/86"/><trkseg>
<trkpt lat="50.494335" lon="4.284189"><time>2026-05-02T19:03:17Z</time></trkpt>
<trkpt lat="50.496939" lon="4.283237"><time>2026-05-02T19:13:17Z</time></trkpt>
</trkseg>
</trk>
<trk>
<name>hccgp87</name>
<cmt>q</cmt>
<desc>Gouy-lez-Piéton Sentier n°87 </desc>
<link href="https://chemins.be/gouylezpieton/sentier/87"/><trkseg>
<trkpt lat="50.495132" lon="4.299356"><time>2026-05-02T19:03:17Z</time></trkpt>
<trkpt lat="50.494799" lon="4.298214"><time>2026-05-02T19:13:17Z</time></trkpt>
</trkseg></trk>
<trk>
<name>hccgp87</name>
<cmt>v</cmt>
<desc>Gouy-lez-Piéton Sentier n°87 </desc>
<link href="https://chemins.be/gouylezpieton/sentier/87"/><trkseg>
<trkpt lat="50.494799" lon="4.298214"><time>2026-05-02T19:13:17Z</time></trkpt>
<trkpt lat="50.494034" lon="4.295940"><time>2026-05-02T19:23:17Z</time></trkpt>
</trkseg></trk>
<trk>
<name>hccgp87</name>
<cmt>d</cmt>
<desc>Gouy-lez-Piéton Sentier n°87 </desc>
<link href="https://chemins.be/gouylezpieton/sentier/87"/><trkseg>
<trkpt lat="50.494034" lon="4.295940"><time>2026-05-02T19:23:17Z</time></trkpt>
<trkpt lat="50.494501" lon="4.293058"><time>2026-05-02T19:33:17Z</time></trkpt>
</trkseg></trk>
<trk>
<name>hccgp87</name>
<cmt>q</cmt>
<desc>Gouy-lez-Piéton Sentier n°87 </desc>
<link href="https://chemins.be/gouylezpieton/sentier/87"/><trkseg>
<trkpt lat="50.494501" lon="4.293058"><time>2026-05-02T19:33:17Z</time></trkpt>
<trkpt lat="50.494547" lon="4.289305"><time>2026-05-02T19:43:17Z</time></trkpt>
</trkseg>
</trk>
<trk>
<name>hccgp88</name>
<cmt>r</cmt>
<desc>Gouy-lez-Piéton Sentier n°88 Avenue de Stalingrad</desc>
<link href="https://chemins.be/gouylezpieton/sentier/88"/><trkseg>
<trkpt lat="50.493259" lon="4.283400"><time>2026-05-02T19:03:17Z</time></trkpt>
<trkpt lat="50.492560" lon="4.280705"><time>2026-05-02T19:13:17Z</time></trkpt>
<trkpt lat="50.492664" lon="4.280396"><time>2026-05-02T19:23:17Z</time></trkpt>
</trkseg>
</trk>
<trk>
<name>hccgp89</name>
<cmt>v</cmt>
<desc>Gouy-lez-Piéton Sentier n°89 </desc>
<link href="https://chemins.be/gouylezpieton/sentier/89"/><trkseg>
<trkpt lat="50.489460" lon="4.282372"><time>2026-05-02T19:03:17Z</time></trkpt>
<trkpt lat="50.489677" lon="4.282243"><time>2026-05-02T19:13:17Z</time></trkpt>
<trkpt lat="50.490807" lon="4.283321"><time>2026-05-02T19:23:17Z</time></trkpt>
</trkseg></trk>
<trk>
<name>hccgp89</name>
<cmt>q</cmt>
<desc>Gouy-lez-Piéton Sentier n°89 </desc>
<link href="https://chemins.be/gouylezpieton/sentier/89"/><trkseg>
<trkpt lat="50.490807" lon="4.283321"><time>2026-05-02T19:23:17Z</time></trkpt>
<trkpt lat="50.491855" lon="4.284203"><time>2026-05-02T19:33:17Z</time></trkpt>
</trkseg></trk>
<trk>
<name>hccgp89</name>
<cmt>s</cmt>
<desc>Gouy-lez-Piéton Sentier n°89 </desc>
<link href="https://chemins.be/gouylezpieton/sentier/89"/><trkseg>
<trkpt lat="50.491855" lon="4.284203"><time>2026-05-02T19:33:17Z</time></trkpt>
<trkpt lat="50.492152" lon="4.284453"><time>2026-05-02T19:43:17Z</time></trkpt>
</trkseg></trk>
<trk>
<name>hccgp89</name>
<cmt>q</cmt>
<desc>Gouy-lez-Piéton Sentier n°89 </desc>
<link href="https://chemins.be/gouylezpieton/sentier/89"/><trkseg>
<trkpt lat="50.492152" lon="4.284453"><time>2026-05-02T19:43:17Z</time></trkpt>
<trkpt lat="50.493112" lon="4.285386"><time>2026-05-02T19:53:17Z</time></trkpt>
</trkseg></trk>
<trk>
<name>hccgp89</name>
<cmt>r</cmt>
<desc>Gouy-lez-Piéton Sentier n°89 </desc>
<link href="https://chemins.be/gouylezpieton/sentier/89"/><trkseg>
<trkpt lat="50.493112" lon="4.285386"><time>2026-05-02T19:53:17Z</time></trkpt>
<trkpt lat="50.493535" lon="4.285313"><time>2026-05-02T20:03:17Z</time></trkpt>
</trkseg>
</trk>
<trk>
<name>hccgp90</name>
<cmt>q</cmt>
<desc>Gouy-lez-Piéton Sentier n°90 </desc>
<link href="https://chemins.be/gouylezpieton/sentier/90"/><trkseg>
<trkpt lat="50.489252" lon="4.281489"><time>2026-05-02T19:03:17Z</time></trkpt>
<trkpt lat="50.490888" lon="4.280255"><time>2026-05-02T19:13:17Z</time></trkpt>
<trkpt lat="50.491359" lon="4.280266"><time>2026-05-02T19:23:17Z</time></trkpt>
<trkpt lat="50.491445" lon="4.279894"><time>2026-05-02T19:33:17Z</time></trkpt>
</trkseg>
</trk>
<trk>
<name>hccgp91</name>
<cmt>v</cmt>
<desc>Gouy-lez-Piéton Sentier n°91 </desc>
<link href="https://chemins.be/gouylezpieton/sentier/91"/><trkseg>
<trkpt lat="50.493249" lon="4.288725"><time>2026-05-02T19:03:17Z</time></trkpt>
<trkpt lat="50.492969" lon="4.288133"><time>2026-05-02T19:13:17Z</time></trkpt>
</trkseg></trk>
<trk>
<name>hccgp91</name>
<cmt>q</cmt>
<desc>Gouy-lez-Piéton Sentier n°91 </desc>
<link href="https://chemins.be/gouylezpieton/sentier/91"/><trkseg>
<trkpt lat="50.492969" lon="4.288133"><time>2026-05-02T19:13:17Z</time></trkpt>
<trkpt lat="50.492589" lon="4.287488"><time>2026-05-02T19:23:17Z</time></trkpt>
</trkseg></trk>
<trk>
<name>hccgp91</name>
<cmt>s</cmt>
<desc>Gouy-lez-Piéton Sentier n°91 </desc>
<link href="https://chemins.be/gouylezpieton/sentier/91"/><trkseg>
<trkpt lat="50.492589" lon="4.287488"><time>2026-05-02T19:23:17Z</time></trkpt>
<trkpt lat="50.492277" lon="4.286854"><time>2026-05-02T19:33:17Z</time></trkpt>
</trkseg></trk>
<trk>
<name>hccgp91</name>
<cmt>v</cmt>
<desc>Gouy-lez-Piéton Sentier n°91 </desc>
<link href="https://chemins.be/gouylezpieton/sentier/91"/><trkseg>
<trkpt lat="50.492277" lon="4.286854"><time>2026-05-02T19:33:17Z</time></trkpt>
<trkpt lat="50.491763" lon="4.286561"><time>2026-05-02T19:43:17Z</time></trkpt>
</trkseg></trk>
<trk>
<name>hccgp91</name>
<cmt>q</cmt>
<desc>Gouy-lez-Piéton Sentier n°91 </desc>
<link href="https://chemins.be/gouylezpieton/sentier/91"/><trkseg>
<trkpt lat="50.491763" lon="4.286561"><time>2026-05-02T19:43:17Z</time></trkpt>
<trkpt lat="50.491574" lon="4.286021"><time>2026-05-02T19:53:17Z</time></trkpt>
<trkpt lat="50.491099" lon="4.284434"><time>2026-05-02T20:03:17Z</time></trkpt>
</trkseg></trk>
<trk>
<name>hccgp91</name>
<cmt>v</cmt>
<desc>Gouy-lez-Piéton Sentier n°91 </desc>
<link href="https://chemins.be/gouylezpieton/sentier/91"/><trkseg>
<trkpt lat="50.491099" lon="4.284434"><time>2026-05-02T20:03:17Z</time></trkpt>
<trkpt lat="50.490781" lon="4.283373"><time>2026-05-02T20:13:17Z</time></trkpt>
</trkseg>
</trk>
<trk>
<name>hccgp92</name>
<cmt>q</cmt>
<desc>Gouy-lez-Piéton Sentier n°92 Rue des Champs d'en Haut</desc>
<link href="https://chemins.be/gouylezpieton/sentier/92"/><trkseg>
<trkpt lat="50.489453" lon="4.284558"><time>2026-05-02T19:03:17Z</time></trkpt>
<trkpt lat="50.490682" lon="4.287058"><time>2026-05-02T19:13:17Z</time></trkpt>
<trkpt lat="50.490289" lon="4.287884"><time>2026-05-02T19:23:17Z</time></trkpt>
</trkseg></trk>
<trk>
<name>hccgp92</name>
<cmt>r</cmt>
<desc>Gouy-lez-Piéton Sentier n°92 Rue des Champs d'en Haut</desc>
<link href="https://chemins.be/gouylezpieton/sentier/92"/><trkseg>
<trkpt lat="50.490289" lon="4.287884"><time>2026-05-02T19:23:17Z</time></trkpt>
<trkpt lat="50.490771" lon="4.288452"><time>2026-05-02T19:33:17Z</time></trkpt>
<trkpt lat="50.492378" lon="4.290185"><time>2026-05-02T19:43:17Z</time></trkpt>
</trkseg>
</trk>
<trk>
<name>hccgp93</name>
<cmt>r</cmt>
<desc>Gouy-lez-Piéton Sentier n°93 Rue des Champs d'en Haut</desc>
<link href="https://chemins.be/gouylezpieton/sentier/93"/><trkseg>
<trkpt lat="50.488800" lon="4.286468"><time>2026-05-02T19:03:17Z</time></trkpt>
<trkpt lat="50.490271" lon="4.287875"><time>2026-05-02T19:13:17Z</time></trkpt>
</trkseg></trk>
<trk>
<name>hccgp93</name>
<cmt>q</cmt>
<desc>Gouy-lez-Piéton Sentier n°93 Rue des Champs d'en Haut</desc>
<link href="https://chemins.be/gouylezpieton/sentier/93"/><trkseg>
<trkpt lat="50.490271" lon="4.287875"><time>2026-05-02T19:13:17Z</time></trkpt>
<trkpt lat="50.491046" lon="4.287862"><time>2026-05-02T19:23:17Z</time></trkpt>
</trkseg></trk>
<trk>
<name>hccgp93</name>
<cmt>v</cmt>
<desc>Gouy-lez-Piéton Sentier n°93 Rue des Champs d'en Haut</desc>
<link href="https://chemins.be/gouylezpieton/sentier/93"/><trkseg>
<trkpt lat="50.491046" lon="4.287862"><time>2026-05-02T19:23:17Z</time></trkpt>
<trkpt lat="50.491757" lon="4.286585"><time>2026-05-02T19:33:17Z</time></trkpt>
</trkseg>
</trk>
<trk>
<name>hccgp94</name>
<cmt>v</cmt>
<desc>Gouy-lez-Piéton Sentier n°94 </desc>
<link href="https://chemins.be/gouylezpieton/sentier/94"/><trkseg>
<trkpt lat="50.493913" lon="4.287455"><time>2026-05-02T19:03:17Z</time></trkpt>
<trkpt lat="50.493437" lon="4.287724"><time>2026-05-02T19:13:17Z</time></trkpt>
<trkpt lat="50.493140" lon="4.287907"><time>2026-05-02T19:23:17Z</time></trkpt>
<trkpt lat="50.492942" lon="4.288161"><time>2026-05-02T19:33:17Z</time></trkpt>
</trkseg></trk>
<trk>
<name>hccgp94</name>
<cmt>q</cmt>
<desc>Gouy-lez-Piéton Sentier n°94 </desc>
<link href="https://chemins.be/gouylezpieton/sentier/94"/><trkseg>
<trkpt lat="50.492942" lon="4.288161"><time>2026-05-02T19:33:17Z</time></trkpt>
<trkpt lat="50.492734" lon="4.288554"><time>2026-05-02T19:43:17Z</time></trkpt>
</trkseg></trk>
<trk>
<name>hccgp94</name>
<cmt>s</cmt>
<desc>Gouy-lez-Piéton Sentier n°94 </desc>
<link href="https://chemins.be/gouylezpieton/sentier/94"/><trkseg>
<trkpt lat="50.492734" lon="4.288554"><time>2026-05-02T19:43:17Z</time></trkpt>
<trkpt lat="50.492608" lon="4.288761"><time>2026-05-02T19:53:17Z</time></trkpt>
</trkseg></trk>
<trk>
<name>hccgp94</name>
<cmt>q</cmt>
<desc>Gouy-lez-Piéton Sentier n°94 </desc>
<link href="https://chemins.be/gouylezpieton/sentier/94"/><trkseg>
<trkpt lat="50.492608" lon="4.288761"><time>2026-05-02T19:53:17Z</time></trkpt>
<trkpt lat="50.492269" lon="4.289431"><time>2026-05-02T20:03:17Z</time></trkpt>
<trkpt lat="50.491973" lon="4.289643"><time>2026-05-02T20:13:17Z</time></trkpt>
<trkpt lat="50.490787" lon="4.292097"><time>2026-05-02T20:23:17Z</time></trkpt>
<trkpt lat="50.490167" lon="4.292126"><time>2026-05-02T20:33:17Z</time></trkpt>
<trkpt lat="50.489315" lon="4.295453"><time>2026-05-02T20:43:17Z</time></trkpt>
<trkpt lat="50.488201" lon="4.296117"><time>2026-05-02T20:53:17Z</time></trkpt>
<trkpt lat="50.487042" lon="4.297387"><time>2026-05-02T21:03:17Z</time></trkpt>
<trkpt lat="50.486727" lon="4.297543"><time>2026-05-02T21:13:17Z</time></trkpt>
</trkseg>
</trk>
<trk>
<name>hccgp95</name>
<cmt>q</cmt>
<desc>Gouy-lez-Piéton Sentier n°95 </desc>
<link href="https://chemins.be/gouylezpieton/sentier/95"/><trkseg>
<trkpt lat="50.489129" lon="4.285524"><time>2026-05-02T19:03:17Z</time></trkpt>
<trkpt lat="50.489579" lon="4.285760"><time>2026-05-02T19:13:17Z</time></trkpt>
<trkpt lat="50.489949" lon="4.285433"><time>2026-05-02T19:23:17Z</time></trkpt>
</trkseg></trk>
<trk>
<name>hccgp95</name>
<cmt>v</cmt>
<desc>Gouy-lez-Piéton Sentier n°95 </desc>
<link href="https://chemins.be/gouylezpieton/sentier/95"/><trkseg>
<trkpt lat="50.489949" lon="4.285433"><time>2026-05-02T19:23:17Z</time></trkpt>
<trkpt lat="50.491088" lon="4.284424"><time>2026-05-02T19:33:17Z</time></trkpt>
<trkpt lat="50.491875" lon="4.284239"><time>2026-05-02T19:43:17Z</time></trkpt>
</trkseg></trk>
<trk>
<name>hccgp95</name>
<cmt>s</cmt>
<desc>Gouy-lez-Piéton Sentier n°95 </desc>
<link href="https://chemins.be/gouylezpieton/sentier/95"/><trkseg>
<trkpt lat="50.491875" lon="4.284239"><time>2026-05-02T19:43:17Z</time></trkpt>
<trkpt lat="50.492096" lon="4.284189"><time>2026-05-02T19:53:17Z</time></trkpt>
</trkseg></trk>
<trk>
<name>hccgp95</name>
<cmt>q</cmt>
<desc>Gouy-lez-Piéton Sentier n°95 </desc>
<link href="https://chemins.be/gouylezpieton/sentier/95"/><trkseg>
<trkpt lat="50.492096" lon="4.284189"><time>2026-05-02T19:53:17Z</time></trkpt>
<trkpt lat="50.493264" lon="4.283443"><time>2026-05-02T20:03:17Z</time></trkpt>
</trkseg>
</trk>
<trk>
<name>hccgp96</name>
<cmt>q</cmt>
<desc>Gouy-lez-Piéton Sentier n°96 </desc>
<link href="https://chemins.be/gouylezpieton/sentier/96"/><trkseg>
<trkpt lat="50.494994" lon="4.287750"><time>2026-05-02T19:03:17Z</time></trkpt>
<trkpt lat="50.495098" lon="4.288265"><time>2026-05-02T19:13:17Z</time></trkpt>
<trkpt lat="50.495485" lon="4.288558"><time>2026-05-02T19:23:17Z</time></trkpt>
<trkpt lat="50.495533" lon="4.288833"><time>2026-05-02T19:33:17Z</time></trkpt>
</trkseg>
</trk>
<trk>
<name>hccgp97</name>
<cmt>q</cmt>
<desc>Gouy-lez-Piéton Sentier n°97 </desc>
<link href="https://chemins.be/gouylezpieton/sentier/97"/><trkseg>
<trkpt lat="50.488420" lon="4.288944"><time>2026-05-02T19:03:17Z</time></trkpt>
<trkpt lat="50.488147" lon="4.288825"><time>2026-05-02T19:13:17Z</time></trkpt>
<trkpt lat="50.486281" lon="4.286655"><time>2026-05-02T19:23:17Z</time></trkpt>
</trkseg></trk>
<trk>
<name>hccgp97</name>
<cmt>v</cmt>
<desc>Gouy-lez-Piéton Sentier n°97 </desc>
<link href="https://chemins.be/gouylezpieton/sentier/97"/><trkseg>
<trkpt lat="50.486281" lon="4.286655"><time>2026-05-02T19:23:17Z</time></trkpt>
<trkpt lat="50.483865" lon="4.284189"><time>2026-05-02T19:33:17Z</time></trkpt>
<trkpt lat="50.483811" lon="4.283777"><time>2026-05-02T19:43:17Z</time></trkpt>
</trkseg>
</trk>
<trk>
<name>hccgp98</name>
<cmt>r</cmt>
<desc>Gouy-lez-Piéton Sentier n°98 </desc>
<link href="https://chemins.be/gouylezpieton/sentier/98"/><trkseg>
<trkpt lat="50.488507" lon="4.286793"><time>2026-05-02T19:03:17Z</time></trkpt>
<trkpt lat="50.487473" lon="4.286675"><time>2026-05-02T19:13:17Z</time></trkpt>
</trkseg></trk>
<trk>
<name>hccgp98</name>
<cmt>v</cmt>
<desc>Gouy-lez-Piéton Sentier n°98 </desc>
<link href="https://chemins.be/gouylezpieton/sentier/98"/><trkseg>
<trkpt lat="50.487473" lon="4.286675"><time>2026-05-02T19:13:17Z</time></trkpt>
<trkpt lat="50.486302" lon="4.286675"><time>2026-05-02T19:23:17Z</time></trkpt>
</trkseg>
</trk>
<trk>
<name>hccgpi1</name>
<cmt>v</cmt>
<desc>Gouy-lez-Piéton Sentier n°i1 </desc>
<link href="https://chemins.be/gouylezpieton/sentier/i1"/><trkseg>
<trkpt lat="50.503053" lon="4.296236"><time>2026-05-02T19:03:17Z</time></trkpt>
<trkpt lat="50.504464" lon="4.295684"><time>2026-05-02T19:13:17Z</time></trkpt>
<trkpt lat="50.505506" lon="4.295019"><time>2026-05-02T19:23:17Z</time></trkpt>
<trkpt lat="50.505776" lon="4.294653"><time>2026-05-02T19:33:17Z</time></trkpt>
<trkpt lat="50.506252" lon="4.294031"><time>2026-05-02T19:43:17Z</time></trkpt>
<trkpt lat="50.506360" lon="4.293749"><time>2026-05-02T19:53:17Z</time></trkpt>
<trkpt lat="50.506260" lon="4.293383"><time>2026-05-02T20:03:17Z</time></trkpt>
<trkpt lat="50.506170" lon="4.292974"><time>2026-05-02T20:13:17Z</time></trkpt>
<trkpt lat="50.506242" lon="4.292523"><time>2026-05-02T20:23:17Z</time></trkpt>
</trkseg>
</trk>
<trk>
<name>hccgpi10</name>
<cmt>v</cmt>
<desc>Gouy-lez-Piéton Sentier n°i10 </desc>
<link href="https://chemins.be/gouylezpieton/sentier/i10"/><trkseg>
<trkpt lat="50.507607" lon="4.328375"><time>2026-05-02T19:03:17Z</time></trkpt>
<trkpt lat="50.507089" lon="4.328538"><time>2026-05-02T19:13:17Z</time></trkpt>
<trkpt lat="50.506862" lon="4.328705"><time>2026-05-02T19:23:17Z</time></trkpt>
</trkseg>
</trk>
<trk>
<name>hccgpi11</name>
<cmt>v</cmt>
<desc>Gouy-lez-Piéton Chemin n°i11 </desc>
<link href="https://chemins.be/gouylezpieton/chemin/i11"/><trkseg>
<trkpt lat="50.493554" lon="4.295888"><time>2026-05-02T19:03:17Z</time></trkpt>
<trkpt lat="50.494034" lon="4.295914"><time>2026-05-02T19:13:17Z</time></trkpt>
</trkseg>
</trk>
<trk>
<name>hccgpi12</name>
<cmt>v</cmt>
<desc>Gouy-lez-Piéton Chemin n°i12 </desc>
<link href="https://chemins.be/gouylezpieton/chemin/i12"/><trkseg>
<trkpt lat="50.493600" lon="4.294133"><time>2026-05-02T19:03:17Z</time></trkpt>
<trkpt lat="50.493584" lon="4.295892"><time>2026-05-02T19:13:17Z</time></trkpt>
<trkpt lat="50.493338" lon="4.298510"><time>2026-05-02T19:23:17Z</time></trkpt>
<trkpt lat="50.493028" lon="4.300416"><time>2026-05-02T19:33:17Z</time></trkpt>
<trkpt lat="50.492628" lon="4.301626"><time>2026-05-02T19:43:17Z</time></trkpt>
<trkpt lat="50.490981" lon="4.306717"><time>2026-05-02T19:53:17Z</time></trkpt>
<trkpt lat="50.490689" lon="4.307820"><time>2026-05-02T20:03:17Z</time></trkpt>
</trkseg>
</trk>
<trk>
<name>hccgpi13</name>
<cmt>r</cmt>
<desc>Gouy-lez-Piéton Chemin n°i13 </desc>
<link href="https://chemins.be/gouylezpieton/chemin/i13"/><trkseg>
<trkpt lat="50.502999" lon="4.296306"><time>2026-05-02T19:03:17Z</time></trkpt>
<trkpt lat="50.502836" lon="4.295052"><time>2026-05-02T19:13:17Z</time></trkpt>
<trkpt lat="50.502611" lon="4.294220"><time>2026-05-02T19:23:17Z</time></trkpt>
<trkpt lat="50.502431" lon="4.293544"><time>2026-05-02T19:33:17Z</time></trkpt>
<trkpt lat="50.502026" lon="4.292812"><time>2026-05-02T19:43:17Z</time></trkpt>
<trkpt lat="50.500938" lon="4.292574"><time>2026-05-02T19:53:17Z</time></trkpt>
</trkseg>
</trk>
<trk>
<name>hccgpi14</name>
<cmt>v</cmt>
<desc>Gouy-lez-Piéton Chemin n°i14 </desc>
<link href="https://chemins.be/gouylezpieton/chemin/i14"/><trkseg>
<trkpt lat="50.476604" lon="4.298605"><time>2026-05-02T19:03:17Z</time></trkpt>
<trkpt lat="50.476529" lon="4.298969"><time>2026-05-02T19:13:17Z</time></trkpt>
<trkpt lat="50.477089" lon="4.301426"><time>2026-05-02T19:23:17Z</time></trkpt>
</trkseg>
</trk>
<trk>
<name>hccgpi15</name>
<cmt>v</cmt>
<desc>Gouy-lez-Piéton Chemin n°i15 </desc>
<link href="https://chemins.be/gouylezpieton/chemin/i15"/><trkseg>
<trkpt lat="50.478025" lon="4.303218"><time>2026-05-02T19:03:17Z</time></trkpt>
<trkpt lat="50.478188" lon="4.308175"><time>2026-05-02T19:13:17Z</time></trkpt>
<trkpt lat="50.478275" lon="4.309676"><time>2026-05-02T19:23:17Z</time></trkpt>
<trkpt lat="50.478325" lon="4.310535"><time>2026-05-02T19:33:17Z</time></trkpt>
<trkpt lat="50.477949" lon="4.312617"><time>2026-05-02T19:43:17Z</time></trkpt>
<trkpt lat="50.477287" lon="4.313368"><time>2026-05-02T19:53:17Z</time></trkpt>
</trkseg>
</trk>
<trk>
<name>hccgpi16</name>
<cmt>v</cmt>
<desc>Gouy-lez-Piéton Chemin n°i16 </desc>
<link href="https://chemins.be/gouylezpieton/chemin/i16"/><trkseg>
<trkpt lat="50.473470" lon="4.314644"><time>2026-05-02T19:03:17Z</time></trkpt>
<trkpt lat="50.475778" lon="4.315943"><time>2026-05-02T19:13:17Z</time></trkpt>
<trkpt lat="50.477847" lon="4.318238"><time>2026-05-02T19:23:17Z</time></trkpt>
<trkpt lat="50.477867" lon="4.318818"><time>2026-05-02T19:33:17Z</time></trkpt>
</trkseg>
</trk>
<trk>
<name>hccgpi17</name>
<cmt>q</cmt>
<desc>Gouy-lez-Piéton Chemin n°i17 </desc>
<link href="https://chemins.be/gouylezpieton/chemin/i17"/><trkseg>
<trkpt lat="50.475814" lon="4.333583"><time>2026-05-02T19:03:17Z</time></trkpt>
<trkpt lat="50.475917" lon="4.334790"><time>2026-05-02T19:13:17Z</time></trkpt>
</trkseg>
</trk>
<trk>
<name>hccgpi18</name>
<cmt>v</cmt>
<desc>Gouy-lez-Piéton Sentier n°i18 </desc>
<link href="https://chemins.be/gouylezpieton/sentier/i18"/><trkseg>
<trkpt lat="50.502855" lon="4.295772"><time>2026-05-02T19:03:17Z</time></trkpt>
<trkpt lat="50.502663" lon="4.295465"><time>2026-05-02T19:13:17Z</time></trkpt>
<trkpt lat="50.502662" lon="4.295352"><time>2026-05-02T19:23:17Z</time></trkpt>
<trkpt lat="50.502568" lon="4.295164"><time>2026-05-02T19:33:17Z</time></trkpt>
</trkseg>
</trk>
<trk>
<name>hccgpi19</name>
<cmt>v</cmt>
<desc>Gouy-lez-Piéton Chemin n°i19 </desc>
<link href="https://chemins.be/gouylezpieton/chemin/i19"/><trkseg>
<trkpt lat="50.491561" lon="4.282090"><time>2026-05-02T19:03:17Z</time></trkpt>
<trkpt lat="50.491885" lon="4.284224"><time>2026-05-02T19:13:17Z</time></trkpt>
<trkpt lat="50.492305" lon="4.286986"><time>2026-05-02T19:23:17Z</time></trkpt>
</trkseg>
</trk>
<trk>
<name>hccgpi2</name>
<cmt>v</cmt>
<desc>Gouy-lez-Piéton Sentier n°i2 </desc>
<link href="https://chemins.be/gouylezpieton/sentier/i2"/><trkseg>
<trkpt lat="50.502925" lon="4.295971"><time>2026-05-02T19:03:17Z</time></trkpt>
<trkpt lat="50.502885" lon="4.295949"><time>2026-05-02T19:13:17Z</time></trkpt>
<trkpt lat="50.502861" lon="4.295856"><time>2026-05-02T19:23:17Z</time></trkpt>
<trkpt lat="50.502904" lon="4.295606"><time>2026-05-02T19:33:17Z</time></trkpt>
<trkpt lat="50.503187" lon="4.295122"><time>2026-05-02T19:43:17Z</time></trkpt>
<trkpt lat="50.503439" lon="4.295023"><time>2026-05-02T19:53:17Z</time></trkpt>
<trkpt lat="50.503528" lon="4.294811"><time>2026-05-02T20:03:17Z</time></trkpt>
<trkpt lat="50.504903" lon="4.293526"><time>2026-05-02T20:13:17Z</time></trkpt>
<trkpt lat="50.505523" lon="4.292848"><time>2026-05-02T20:23:17Z</time></trkpt>
<trkpt lat="50.506251" lon="4.292495"><time>2026-05-02T20:33:17Z</time></trkpt>
<trkpt lat="50.508379" lon="4.288107"><time>2026-05-02T20:43:17Z</time></trkpt>
</trkseg>
</trk>
<trk>
<name>hccgpi20</name>
<cmt>v</cmt>
<desc>Gouy-lez-Piéton Sentier n°i20 </desc>
<link href="https://chemins.be/gouylezpieton/sentier/i20"/><trkseg>
<trkpt lat="50.494646" lon="4.292871"><time>2026-05-02T19:03:17Z</time></trkpt>
<trkpt lat="50.493958" lon="4.292503"><time>2026-05-02T19:13:17Z</time></trkpt>
<trkpt lat="50.493578" lon="4.292600"><time>2026-05-02T19:23:17Z</time></trkpt>
</trkseg>
</trk>
<trk>
<name>hccgpi21</name>
<cmt>v</cmt>
<desc>Gouy-lez-Piéton Chemin n°i21 </desc>
<link href="https://chemins.be/gouylezpieton/chemin/i21"/><trkseg>
<trkpt lat="50.493401" lon="4.298313"><time>2026-05-02T19:03:17Z</time></trkpt>
<trkpt lat="50.493811" lon="4.297176"><time>2026-05-02T19:13:17Z</time></trkpt>
<trkpt lat="50.494107" lon="4.297534"><time>2026-05-02T19:23:17Z</time></trkpt>
<trkpt lat="50.494566" lon="4.298342"><time>2026-05-02T19:33:17Z</time></trkpt>
<trkpt lat="50.494821" lon="4.298235"><time>2026-05-02T19:43:17Z</time></trkpt>
<trkpt lat="50.495176" lon="4.298506"><time>2026-05-02T19:53:17Z</time></trkpt>
<trkpt lat="50.496914" lon="4.297062"><time>2026-05-02T20:03:17Z</time></trkpt>
<trkpt lat="50.497592" lon="4.296518"><time>2026-05-02T20:13:17Z</time></trkpt>
<trkpt lat="50.499885" lon="4.295116"><time>2026-05-02T20:23:17Z</time></trkpt>
<trkpt lat="50.500122" lon="4.295159"><time>2026-05-02T20:33:17Z</time></trkpt>
</trkseg>
</trk>
<trk>
<name>hccgpi3</name>
<cmt>v</cmt>
<desc>Gouy-lez-Piéton Chemin n°i3 </desc>
<link href="https://chemins.be/gouylezpieton/chemin/i3"/><trkseg>
<trkpt lat="50.483250" lon="4.347174"><time>2026-05-02T19:03:17Z</time></trkpt>
<trkpt lat="50.482845" lon="4.347808"><time>2026-05-02T19:13:17Z</time></trkpt>
<trkpt lat="50.482693" lon="4.349302"><time>2026-05-02T19:23:17Z</time></trkpt>
<trkpt lat="50.482405" lon="4.351500"><time>2026-05-02T19:33:17Z</time></trkpt>
<trkpt lat="50.481992" lon="4.354065"><time>2026-05-02T19:43:17Z</time></trkpt>
</trkseg>
</trk>
<trk>
<name>hccgpi4</name>
<cmt>v</cmt>
<desc>Gouy-lez-Piéton Sentier n°i4 </desc>
<link href="https://chemins.be/gouylezpieton/sentier/i4"/><trkseg>
<trkpt lat="50.502900" lon="4.296010"><time>2026-05-02T19:03:17Z</time></trkpt>
<trkpt lat="50.501696" lon="4.296787"><time>2026-05-02T19:13:17Z</time></trkpt>
<trkpt lat="50.500033" lon="4.298256"><time>2026-05-02T19:23:17Z</time></trkpt>
<trkpt lat="50.498317" lon="4.299428"><time>2026-05-02T19:33:17Z</time></trkpt>
<trkpt lat="50.497364" lon="4.299909"><time>2026-05-02T19:43:17Z</time></trkpt>
<trkpt lat="50.496474" lon="4.299727"><time>2026-05-02T19:53:17Z</time></trkpt>
<trkpt lat="50.495863" lon="4.300249"><time>2026-05-02T20:03:17Z</time></trkpt>
<trkpt lat="50.494722" lon="4.302182"><time>2026-05-02T20:13:17Z</time></trkpt>
<trkpt lat="50.494722" lon="4.302369"><time>2026-05-02T20:23:17Z</time></trkpt>
<trkpt lat="50.494399" lon="4.302549"><time>2026-05-02T20:33:17Z</time></trkpt>
<trkpt lat="50.494300" lon="4.303141"><time>2026-05-02T20:43:17Z</time></trkpt>
<trkpt lat="50.492954" lon="4.306708"><time>2026-05-02T20:53:17Z</time></trkpt>
<trkpt lat="50.492693" lon="4.307131"><time>2026-05-02T21:03:17Z</time></trkpt>
<trkpt lat="50.492272" lon="4.308879"><time>2026-05-02T21:13:17Z</time></trkpt>
<trkpt lat="50.492146" lon="4.309993"><time>2026-05-02T21:23:17Z</time></trkpt>
<trkpt lat="50.492129" lon="4.312079"><time>2026-05-02T21:33:17Z</time></trkpt>
<trkpt lat="50.492770" lon="4.316898"><time>2026-05-02T21:43:17Z</time></trkpt>
<trkpt lat="50.493309" lon="4.316643"><time>2026-05-02T21:53:17Z</time></trkpt>
</trkseg>
</trk>
<trk>
<name>hccgpi5</name>
<cmt>v</cmt>
<desc>Gouy-lez-Piéton Sentier n°i5 </desc>
<link href="https://chemins.be/gouylezpieton/sentier/i5"/><trkseg>
<trkpt lat="50.486535" lon="4.328206"><time>2026-05-02T19:03:17Z</time></trkpt>
<trkpt lat="50.486436" lon="4.328319"><time>2026-05-02T19:13:17Z</time></trkpt>
<trkpt lat="50.486400" lon="4.328403"><time>2026-05-02T19:23:17Z</time></trkpt>
<trkpt lat="50.486427" lon="4.328882"><time>2026-05-02T19:33:17Z</time></trkpt>
<trkpt lat="50.486374" lon="4.329122"><time>2026-05-02T19:43:17Z</time></trkpt>
<trkpt lat="50.486446" lon="4.329249"><time>2026-05-02T19:53:17Z</time></trkpt>
<trkpt lat="50.486518" lon="4.329404"><time>2026-05-02T20:03:17Z</time></trkpt>
<trkpt lat="50.486500" lon="4.329615"><time>2026-05-02T20:13:17Z</time></trkpt>
</trkseg>
</trk>
<trk>
<name>hccgpi6</name>
<cmt>r</cmt>
<desc>Gouy-lez-Piéton Chemin n°i6 Domaine de Claire-Fontaine</desc>
<link href="https://chemins.be/gouylezpieton/chemin/i6"/><trkseg>
<trkpt lat="50.488846" lon="4.293157"><time>2026-05-02T19:03:17Z</time></trkpt>
<trkpt lat="50.487723" lon="4.293779"><time>2026-05-02T19:13:17Z</time></trkpt>
</trkseg>
</trk>
<trk>
<name>hccgpi7</name>
<cmt>v</cmt>
<desc>Gouy-lez-Piéton Chemin n°i7 </desc>
<link href="https://chemins.be/gouylezpieton/chemin/i7"/><trkseg>
<trkpt lat="50.493733" lon="4.286722"><time>2026-05-02T19:03:17Z</time></trkpt>
<trkpt lat="50.493319" lon="4.286906"><time>2026-05-02T19:13:17Z</time></trkpt>
<trkpt lat="50.493482" lon="4.287597"><time>2026-05-02T19:23:17Z</time></trkpt>
</trkseg>
</trk>
<trk>
<name>hccgpi8</name>
<cmt>v</cmt>
<desc>Gouy-lez-Piéton Chemin n°i8 </desc>
<link href="https://chemins.be/gouylezpieton/chemin/i8"/><trkseg>
<trkpt lat="50.503069" lon="4.295304"><time>2026-05-02T19:03:17Z</time></trkpt>
<trkpt lat="50.503073" lon="4.295030"><time>2026-05-02T19:13:17Z</time></trkpt>
<trkpt lat="50.503032" lon="4.294821"><time>2026-05-02T19:23:17Z</time></trkpt>
</trkseg>
</trk>
<trk>
<name>hccgpi9</name>
<cmt>v</cmt>
<desc>Gouy-lez-Piéton Chemin n°i9 </desc>
<link href="https://chemins.be/gouylezpieton/chemin/i9"/><trkseg>
<trkpt lat="50.496432" lon="4.299729"><time>2026-05-02T19:03:17Z</time></trkpt>
<trkpt lat="50.495435" lon="4.300298"><time>2026-05-02T19:13:17Z</time></trkpt>
<trkpt lat="50.495080" lon="4.300545"><time>2026-05-02T19:23:17Z</time></trkpt>
<trkpt lat="50.495026" lon="4.300512"><time>2026-05-02T19:33:17Z</time></trkpt>
</trkseg>
</trk>
</gpx>